<?xml version="1.0" encoding="UTF-8" standalone="no" ?>
<gpx xmlns="http://www.topografix.com/GPX/1/1" xmlns:xsi="http://www.w3.org/2001/XMLSchema-instance" xsi:schemaLocation="http://www.topografix.com/GPX/1/1 http://www.topografix.com/GPX/1/1/gpx.xsd" version="1.1" creator="VisuGPX - https://www.visugpx.com">
  <metadata>
    <name>11218562-lac des settons 2 jours</name>
  </metadata>
  <trk>
    <name><![CDATA[11218562-lac des settons 2 jours]]></name>
    <trkseg>
      <trkpt lat="47.19771" lon="4.05858">
        <ele>600</ele>
        <time>2020-04-20T16:27:18Z</time>
      </trkpt>
      <trkpt lat="47.19767" lon="4.05887">
        <ele>600</ele>
        <time>2020-04-20T16:27:45Z</time>
      </trkpt>
      <trkpt lat="47.19803" lon="4.05855">
        <ele>606</ele>
        <time>2020-04-20T16:28:41Z</time>
      </trkpt>
      <trkpt lat="47.19829" lon="4.05827">
        <ele>611</ele>
        <time>2020-04-20T16:29:24Z</time>
      </trkpt>
      <trkpt lat="47.19845" lon="4.05821">
        <ele>613</ele>
        <time>2020-04-20T16:29:46Z</time>
      </trkpt>
      <trkpt lat="47.19967" lon="4.05726">
        <ele>624</ele>
        <time>2020-04-20T16:32:50Z</time>
      </trkpt>
      <trkpt lat="47.19988" lon="4.0569">
        <ele>626</ele>
        <time>2020-04-20T16:33:33Z</time>
      </trkpt>
      <trkpt lat="47.20003" lon="4.05628">
        <ele>627</ele>
        <time>2020-04-20T16:34:33Z</time>
      </trkpt>
      <trkpt lat="47.20028" lon="4.05579">
        <ele>626</ele>
        <time>2020-04-20T16:35:28Z</time>
      </trkpt>
      <trkpt lat="47.20136" lon="4.05473">
        <ele>617</ele>
        <time>2020-04-20T16:38:22Z</time>
      </trkpt>
      <trkpt lat="47.20182" lon="4.0545">
        <ele>614</ele>
        <time>2020-04-20T16:39:26Z</time>
      </trkpt>
      <trkpt lat="47.20302" lon="4.05438">
        <ele>609</ele>
        <time>2020-04-20T16:42:07Z</time>
      </trkpt>
      <trkpt lat="47.20355" lon="4.05441">
        <ele>606</ele>
        <time>2020-04-20T16:43:18Z</time>
      </trkpt>
      <trkpt lat="47.20397" lon="4.05453">
        <ele>605</ele>
        <time>2020-04-20T16:44:15Z</time>
      </trkpt>
      <trkpt lat="47.20446" lon="4.0543">
        <ele>601</ele>
        <time>2020-04-20T16:45:23Z</time>
      </trkpt>
      <trkpt lat="47.20488" lon="4.05426">
        <ele>599</ele>
        <time>2020-04-20T16:46:20Z</time>
      </trkpt>
      <trkpt lat="47.20517" lon="4.05396">
        <ele>596</ele>
        <time>2020-04-20T16:47:07Z</time>
      </trkpt>
      <trkpt lat="47.20574" lon="4.05383">
        <ele>597</ele>
        <time>2020-04-20T16:48:24Z</time>
      </trkpt>
      <trkpt lat="47.20657" lon="4.0535">
        <ele>599</ele>
        <time>2020-04-20T16:50:19Z</time>
      </trkpt>
      <trkpt lat="47.20693" lon="4.05307">
        <ele>599</ele>
        <time>2020-04-20T16:51:21Z</time>
      </trkpt>
      <trkpt lat="47.20707" lon="4.05253">
        <ele>596</ele>
        <time>2020-04-20T16:52:13Z</time>
      </trkpt>
      <trkpt lat="47.20744" lon="4.05171">
        <ele>596</ele>
        <time>2020-04-20T16:53:42Z</time>
      </trkpt>
      <trkpt lat="47.20766" lon="4.05077">
        <ele>596</ele>
        <time>2020-04-20T16:55:12Z</time>
      </trkpt>
      <trkpt lat="47.20802" lon="4.05105">
        <ele>602</ele>
        <time>2020-04-20T16:56:07Z</time>
      </trkpt>
      <trkpt lat="47.20827" lon="4.05151">
        <ele>606</ele>
        <time>2020-04-20T16:57:00Z</time>
      </trkpt>
      <trkpt lat="47.20877" lon="4.05206">
        <ele>610</ele>
        <time>2020-04-20T16:58:23Z</time>
      </trkpt>
      <trkpt lat="47.20907" lon="4.05231">
        <ele>612</ele>
        <time>2020-04-20T16:59:09Z</time>
      </trkpt>
      <trkpt lat="47.20924" lon="4.05262">
        <ele>614</ele>
        <time>2020-04-20T16:59:45Z</time>
      </trkpt>
      <trkpt lat="47.2094" lon="4.05254">
        <ele>616</ele>
        <time>2020-04-20T17:00:08Z</time>
      </trkpt>
      <trkpt lat="47.20953" lon="4.05165">
        <ele>616</ele>
        <time>2020-04-20T17:01:31Z</time>
      </trkpt>
      <trkpt lat="47.20966" lon="4.0512">
        <ele>617</ele>
        <time>2020-04-20T17:02:15Z</time>
      </trkpt>
      <trkpt lat="47.20999" lon="4.0508">
        <ele>618</ele>
        <time>2020-04-20T17:03:12Z</time>
      </trkpt>
      <trkpt lat="47.21015" lon="4.05038">
        <ele>616</ele>
        <time>2020-04-20T17:03:56Z</time>
      </trkpt>
      <trkpt lat="47.21042" lon="4.04838">
        <ele>613</ele>
        <time>2020-04-20T17:07:00Z</time>
      </trkpt>
      <trkpt lat="47.21051" lon="4.04739">
        <ele>605</ele>
        <time>2020-04-20T17:08:31Z</time>
      </trkpt>
      <trkpt lat="47.21048" lon="4.04676">
        <ele>599</ele>
        <time>2020-04-20T17:09:28Z</time>
      </trkpt>
      <trkpt lat="47.21075" lon="4.04568">
        <ele>593</ele>
        <time>2020-04-20T17:11:13Z</time>
      </trkpt>
      <trkpt lat="47.21064" lon="4.04469">
        <ele>592</ele>
        <time>2020-04-20T17:12:43Z</time>
      </trkpt>
      <trkpt lat="47.21074" lon="4.04409">
        <ele>591</ele>
        <time>2020-04-20T17:13:39Z</time>
      </trkpt>
      <trkpt lat="47.21073" lon="4.04354">
        <ele>589</ele>
        <time>2020-04-20T17:14:29Z</time>
      </trkpt>
      <trkpt lat="47.21169" lon="4.04164">
        <ele>580</ele>
        <time>2020-04-20T17:18:04Z</time>
      </trkpt>
      <trkpt lat="47.21183" lon="4.04132">
        <ele>577</ele>
        <time>2020-04-20T17:18:38Z</time>
      </trkpt>
      <trkpt lat="47.21184" lon="4.0411">
        <ele>576</ele>
        <time>2020-04-20T17:18:58Z</time>
      </trkpt>
      <trkpt lat="47.2118" lon="4.04057">
        <ele>572</ele>
        <time>2020-04-20T17:19:47Z</time>
      </trkpt>
      <trkpt lat="47.21188" lon="4.04035">
        <ele>570</ele>
        <time>2020-04-20T17:20:09Z</time>
      </trkpt>
      <trkpt lat="47.21227" lon="4.04005">
        <ele>566</ele>
        <time>2020-04-20T17:21:08Z</time>
      </trkpt>
      <trkpt lat="47.21221" lon="4.03958">
        <ele>563</ele>
        <time>2020-04-20T17:21:52Z</time>
      </trkpt>
      <trkpt lat="47.21235" lon="4.03934">
        <ele>560</ele>
        <time>2020-04-20T17:22:20Z</time>
      </trkpt>
      <trkpt lat="47.21262" lon="4.03916">
        <ele>558</ele>
        <time>2020-04-20T17:23:00Z</time>
      </trkpt>
      <trkpt lat="47.21331" lon="4.03915">
        <ele>552</ele>
        <time>2020-04-20T17:24:32Z</time>
      </trkpt>
      <trkpt lat="47.21389" lon="4.03887">
        <ele>546</ele>
        <time>2020-04-20T17:25:53Z</time>
      </trkpt>
      <trkpt lat="47.21461" lon="4.03887">
        <ele>541</ele>
        <time>2020-04-20T17:27:29Z</time>
      </trkpt>
      <trkpt lat="47.21483" lon="4.03885">
        <ele>540</ele>
        <time>2020-04-20T17:27:59Z</time>
      </trkpt>
      <trkpt lat="47.21542" lon="4.03887">
        <ele>537</ele>
        <time>2020-04-20T17:29:18Z</time>
      </trkpt>
      <trkpt lat="47.21577" lon="4.03866">
        <ele>535</ele>
        <time>2020-04-20T17:30:08Z</time>
      </trkpt>
      <trkpt lat="47.21595" lon="4.03897">
        <ele>536</ele>
        <time>2020-04-20T17:30:45Z</time>
      </trkpt>
      <trkpt lat="47.21669" lon="4.03935">
        <ele>536</ele>
        <time>2020-04-20T17:32:30Z</time>
      </trkpt>
      <trkpt lat="47.2166" lon="4.03746">
        <ele>532</ele>
        <time>2020-04-20T17:35:21Z</time>
      </trkpt>
      <trkpt lat="47.21606" lon="4.03615">
        <ele>538</ele>
        <time>2020-04-20T17:37:40Z</time>
      </trkpt>
      <trkpt lat="47.21518" lon="4.03499">
        <ele>539</ele>
        <time>2020-04-20T17:40:18Z</time>
      </trkpt>
      <trkpt lat="47.21495" lon="4.03442">
        <ele>542</ele>
        <time>2020-04-20T17:41:18Z</time>
      </trkpt>
      <trkpt lat="47.21483" lon="4.03381">
        <ele>548</ele>
        <time>2020-04-20T17:42:15Z</time>
      </trkpt>
      <trkpt lat="47.21483" lon="4.03281">
        <ele>557</ele>
        <time>2020-04-20T17:43:46Z</time>
      </trkpt>
      <trkpt lat="47.21495" lon="4.03221">
        <ele>565</ele>
        <time>2020-04-20T17:44:43Z</time>
      </trkpt>
      <trkpt lat="47.21483" lon="4.03147">
        <ele>570</ele>
        <time>2020-04-20T17:45:52Z</time>
      </trkpt>
      <trkpt lat="47.21498" lon="4.03181">
        <ele>569</ele>
        <time>2020-04-20T17:46:28Z</time>
      </trkpt>
      <trkpt lat="47.21509" lon="4.03169">
        <ele>573</ele>
        <time>2020-04-20T17:46:47Z</time>
      </trkpt>
      <trkpt lat="47.21526" lon="4.03135">
        <ele>579</ele>
        <time>2020-04-20T17:47:25Z</time>
      </trkpt>
      <trkpt lat="47.21534" lon="4.03088">
        <ele>585</ele>
        <time>2020-04-20T17:48:09Z</time>
      </trkpt>
      <trkpt lat="47.21559" lon="4.03037">
        <ele>589</ele>
        <time>2020-04-20T17:49:06Z</time>
      </trkpt>
      <trkpt lat="47.216" lon="4.02998">
        <ele>593</ele>
        <time>2020-04-20T17:50:11Z</time>
      </trkpt>
      <trkpt lat="47.21614" lon="4.02946">
        <ele>591</ele>
        <time>2020-04-20T17:51:02Z</time>
      </trkpt>
      <trkpt lat="47.21608" lon="4.02914">
        <ele>588</ele>
        <time>2020-04-20T17:51:32Z</time>
      </trkpt>
      <trkpt lat="47.2164" lon="4.02873">
        <ele>590</ele>
        <time>2020-04-20T17:52:28Z</time>
      </trkpt>
      <trkpt lat="47.21663" lon="4.02819">
        <ele>592</ele>
        <time>2020-04-20T17:53:26Z</time>
      </trkpt>
      <trkpt lat="47.21694" lon="4.02731">
        <ele>596</ele>
        <time>2020-04-20T17:54:56Z</time>
      </trkpt>
      <trkpt lat="47.2171" lon="4.02628">
        <ele>601</ele>
        <time>2020-04-20T17:56:32Z</time>
      </trkpt>
      <trkpt lat="47.21694" lon="4.02555">
        <ele>600</ele>
        <time>2020-04-20T17:57:41Z</time>
      </trkpt>
      <trkpt lat="47.21678" lon="4.0245">
        <ele>598</ele>
        <time>2020-04-20T17:59:19Z</time>
      </trkpt>
      <trkpt lat="47.21664" lon="4.0243">
        <ele>596</ele>
        <time>2020-04-20T17:59:45Z</time>
      </trkpt>
      <trkpt lat="47.21753" lon="4.02307">
        <ele>604</ele>
        <time>2020-04-20T18:02:28Z</time>
      </trkpt>
      <trkpt lat="47.21758" lon="4.02257">
        <ele>603</ele>
        <time>2020-04-20T18:03:14Z</time>
      </trkpt>
      <trkpt lat="47.21744" lon="4.02193">
        <ele>602</ele>
        <time>2020-04-20T18:04:15Z</time>
      </trkpt>
      <trkpt lat="47.21719" lon="4.02147">
        <ele>600</ele>
        <time>2020-04-20T18:05:08Z</time>
      </trkpt>
      <trkpt lat="47.21697" lon="4.021">
        <ele>599</ele>
        <time>2020-04-20T18:06:00Z</time>
      </trkpt>
      <trkpt lat="47.21677" lon="4.0204">
        <ele>598</ele>
        <time>2020-04-20T18:07:00Z</time>
      </trkpt>
      <trkpt lat="47.21666" lon="4.01943">
        <ele>598</ele>
        <time>2020-04-20T18:08:29Z</time>
      </trkpt>
      <trkpt lat="47.21664" lon="4.01802">
        <ele>596</ele>
        <time>2020-04-20T18:10:37Z</time>
      </trkpt>
      <trkpt lat="47.21646" lon="4.01725">
        <ele>593</ele>
        <time>2020-04-20T18:11:51Z</time>
      </trkpt>
      <trkpt lat="47.21619" lon="4.01648">
        <ele>590</ele>
        <time>2020-04-20T18:13:10Z</time>
      </trkpt>
      <trkpt lat="47.21569" lon="4.01569">
        <ele>585</ele>
        <time>2020-04-20T18:14:48Z</time>
      </trkpt>
      <trkpt lat="47.21566" lon="4.01512">
        <ele>585</ele>
        <time>2020-04-20T18:15:39Z</time>
      </trkpt>
      <trkpt lat="47.21569" lon="4.01494">
        <ele>585</ele>
        <time>2020-04-20T18:15:56Z</time>
      </trkpt>
      <trkpt lat="47.21558" lon="4.01334">
        <ele>573</ele>
        <time>2020-04-20T18:18:22Z</time>
      </trkpt>
      <trkpt lat="47.21525" lon="4.01135">
        <ele>554</ele>
        <time>2020-04-20T18:21:28Z</time>
      </trkpt>
      <trkpt lat="47.2153" lon="4.01053">
        <ele>544</ele>
        <time>2020-04-20T18:22:42Z</time>
      </trkpt>
      <trkpt lat="47.21549" lon="4.00992">
        <ele>536</ele>
        <time>2020-04-20T18:23:43Z</time>
      </trkpt>
      <trkpt lat="47.2155" lon="4.00878">
        <ele>522</ele>
        <time>2020-04-20T18:25:26Z</time>
      </trkpt>
      <trkpt lat="47.21555" lon="4.00824">
        <ele>517</ele>
        <time>2020-04-20T18:26:16Z</time>
      </trkpt>
      <trkpt lat="47.21546" lon="4.00786">
        <ele>514</ele>
        <time>2020-04-20T18:26:52Z</time>
      </trkpt>
      <trkpt lat="47.21558" lon="4.00745">
        <ele>511</ele>
        <time>2020-04-20T18:27:33Z</time>
      </trkpt>
      <trkpt lat="47.21591" lon="4.00707">
        <ele>509</ele>
        <time>2020-04-20T18:28:29Z</time>
      </trkpt>
      <trkpt lat="47.21591" lon="4.0061">
        <ele>503</ele>
        <time>2020-04-20T18:29:57Z</time>
      </trkpt>
      <trkpt lat="47.21573" lon="4.00535">
        <ele>500</ele>
        <time>2020-04-20T18:31:09Z</time>
      </trkpt>
      <trkpt lat="47.21589" lon="4.0036">
        <ele>497</ele>
        <time>2020-04-20T18:33:49Z</time>
      </trkpt>
      <trkpt lat="47.2161" lon="4.00271">
        <ele>496</ele>
        <time>2020-04-20T18:35:14Z</time>
      </trkpt>
      <trkpt lat="47.21638" lon="4.00236">
        <ele>495</ele>
        <time>2020-04-20T18:36:03Z</time>
      </trkpt>
      <trkpt lat="47.21666" lon="4.00173">
        <ele>492</ele>
        <time>2020-04-20T18:37:11Z</time>
      </trkpt>
      <trkpt lat="47.21649" lon="4.00124">
        <ele>491</ele>
        <time>2020-04-20T18:38:01Z</time>
      </trkpt>
      <trkpt lat="47.21644" lon="4.00091">
        <ele>491</ele>
        <time>2020-04-20T18:38:32Z</time>
      </trkpt>
      <trkpt lat="47.21668" lon="3.99936">
        <ele>494</ele>
        <time>2020-04-20T18:40:56Z</time>
      </trkpt>
      <trkpt lat="47.21625" lon="3.99961">
        <ele>491</ele>
        <time>2020-04-20T18:41:58Z</time>
      </trkpt>
      <trkpt lat="47.21614" lon="3.99976">
        <ele>490</ele>
        <time>2020-04-20T18:42:18Z</time>
      </trkpt>
      <trkpt lat="47.21569" lon="3.99909">
        <ele>492</ele>
        <time>2020-04-20T18:43:43Z</time>
      </trkpt>
      <trkpt lat="47.21515" lon="3.99897">
        <ele>489</ele>
        <time>2020-04-20T18:44:56Z</time>
      </trkpt>
      <trkpt lat="47.21479" lon="3.99849">
        <ele>489</ele>
        <time>2020-04-20T18:46:01Z</time>
      </trkpt>
      <trkpt lat="47.21431" lon="3.99821">
        <ele>488</ele>
        <time>2020-04-20T18:47:10Z</time>
      </trkpt>
      <trkpt lat="47.21375" lon="3.99779">
        <ele>486</ele>
        <time>2020-04-20T18:48:34Z</time>
      </trkpt>
      <trkpt lat="47.21285" lon="3.99595">
        <ele>485</ele>
        <time>2020-04-20T18:51:59Z</time>
      </trkpt>
      <trkpt lat="47.21279" lon="3.99566">
        <ele>485</ele>
        <time>2020-04-20T18:52:27Z</time>
      </trkpt>
      <trkpt lat="47.21271" lon="3.99542">
        <ele>483</ele>
        <time>2020-04-20T18:52:51Z</time>
      </trkpt>
      <trkpt lat="47.21283" lon="3.9939">
        <ele>481</ele>
        <time>2020-04-20T18:55:10Z</time>
      </trkpt>
      <trkpt lat="47.21283" lon="3.99315">
        <ele>482</ele>
        <time>2020-04-20T18:56:18Z</time>
      </trkpt>
      <trkpt lat="47.21267" lon="3.99265">
        <ele>488</ele>
        <time>2020-04-20T18:57:08Z</time>
      </trkpt>
      <trkpt lat="47.21246" lon="3.99247">
        <ele>489</ele>
        <time>2020-04-20T18:57:40Z</time>
      </trkpt>
      <trkpt lat="47.21231" lon="3.9922">
        <ele>491</ele>
        <time>2020-04-20T18:58:12Z</time>
      </trkpt>
      <trkpt lat="47.21211" lon="3.99163">
        <ele>493</ele>
        <time>2020-04-20T18:59:10Z</time>
      </trkpt>
      <trkpt lat="47.21171" lon="3.99017">
        <ele>490</ele>
        <time>2020-04-20T19:01:33Z</time>
      </trkpt>
      <trkpt lat="47.21148" lon="3.98813">
        <ele>492</ele>
        <time>2020-04-20T19:04:40Z</time>
      </trkpt>
      <trkpt lat="47.21115" lon="3.98706">
        <ele>492</ele>
        <time>2020-04-20T19:06:27Z</time>
      </trkpt>
      <trkpt lat="47.21093" lon="3.98603">
        <ele>492</ele>
        <time>2020-04-20T19:08:04Z</time>
      </trkpt>
      <trkpt lat="47.21044" lon="3.98403">
        <ele>475</ele>
        <time>2020-04-20T19:11:17Z</time>
      </trkpt>
      <trkpt lat="47.2104" lon="3.98537">
        <ele>480</ele>
        <time>2020-04-20T19:13:19Z</time>
      </trkpt>
      <trkpt lat="47.21025" lon="3.98631">
        <ele>481</ele>
        <time>2020-04-20T19:14:46Z</time>
      </trkpt>
      <trkpt lat="47.21007" lon="3.98683">
        <ele>480</ele>
        <time>2020-04-20T19:15:39Z</time>
      </trkpt>
      <trkpt lat="47.20988" lon="3.98687">
        <ele>482</ele>
        <time>2020-04-20T19:16:05Z</time>
      </trkpt>
      <trkpt lat="47.20942" lon="3.98616">
        <ele>486</ele>
        <time>2020-04-20T19:17:34Z</time>
      </trkpt>
      <trkpt lat="47.2091" lon="3.98604">
        <ele>490</ele>
        <time>2020-04-20T19:18:18Z</time>
      </trkpt>
      <trkpt lat="47.20823" lon="3.98626">
        <ele>503</ele>
        <time>2020-04-20T19:20:16Z</time>
      </trkpt>
      <trkpt lat="47.20799" lon="3.98676">
        <ele>510</ele>
        <time>2020-04-20T19:21:11Z</time>
      </trkpt>
      <trkpt lat="47.20783" lon="3.98741">
        <ele>515</ele>
        <time>2020-04-20T19:22:14Z</time>
      </trkpt>
      <trkpt lat="47.20762" lon="3.98765">
        <ele>519</ele>
        <time>2020-04-20T19:22:49Z</time>
      </trkpt>
      <trkpt lat="47.20735" lon="3.98776">
        <ele>522</ele>
        <time>2020-04-20T19:23:27Z</time>
      </trkpt>
      <trkpt lat="47.20707" lon="3.98769">
        <ele>522</ele>
        <time>2020-04-20T19:24:04Z</time>
      </trkpt>
      <trkpt lat="47.20464" lon="3.98641">
        <ele>535</ele>
        <time>2020-04-20T19:29:49Z</time>
      </trkpt>
      <trkpt lat="47.20425" lon="3.98626">
        <ele>541</ele>
        <time>2020-04-20T19:30:43Z</time>
      </trkpt>
      <trkpt lat="47.20392" lon="3.98582">
        <ele>542</ele>
        <time>2020-04-20T19:31:42Z</time>
      </trkpt>
      <trkpt lat="47.20357" lon="3.98522">
        <ele>539</ele>
        <time>2020-04-20T19:32:54Z</time>
      </trkpt>
      <trkpt lat="47.20301" lon="3.98457">
        <ele>534</ele>
        <time>2020-04-20T19:34:29Z</time>
      </trkpt>
      <trkpt lat="47.2026" lon="3.98402">
        <ele>530</ele>
        <time>2020-04-20T19:35:43Z</time>
      </trkpt>
      <trkpt lat="47.20215" lon="3.98389">
        <ele>529</ele>
        <time>2020-04-20T19:36:44Z</time>
      </trkpt>
      <trkpt lat="47.20178" lon="3.98352">
        <ele>525</ele>
        <time>2020-04-20T19:37:44Z</time>
      </trkpt>
      <trkpt lat="47.20123" lon="3.9831">
        <ele>519</ele>
        <time>2020-04-20T19:39:07Z</time>
      </trkpt>
      <trkpt lat="47.20075" lon="3.98252">
        <ele>510</ele>
        <time>2020-04-20T19:40:29Z</time>
      </trkpt>
      <trkpt lat="47.19955" lon="3.98148">
        <ele>495</ele>
        <time>2020-04-20T19:43:35Z</time>
      </trkpt>
      <trkpt lat="47.1986" lon="3.98112">
        <ele>489</ele>
        <time>2020-04-20T19:45:46Z</time>
      </trkpt>
      <trkpt lat="47.19771" lon="3.98037">
        <ele>487</ele>
        <time>2020-04-20T19:48:03Z</time>
      </trkpt>
      <trkpt lat="47.19729" lon="3.97985">
        <ele>488</ele>
        <time>2020-04-20T19:49:16Z</time>
      </trkpt>
      <trkpt lat="47.19676" lon="3.97907">
        <ele>488</ele>
        <time>2020-04-20T19:50:56Z</time>
      </trkpt>
      <trkpt lat="47.19658" lon="3.97865">
        <ele>487</ele>
        <time>2020-04-20T19:51:41Z</time>
      </trkpt>
      <trkpt lat="47.19664" lon="3.97706">
        <ele>484</ele>
        <time>2020-04-20T19:54:06Z</time>
      </trkpt>
      <trkpt lat="47.19642" lon="3.97637">
        <ele>482</ele>
        <time>2020-04-20T19:55:15Z</time>
      </trkpt>
      <trkpt lat="47.1961" lon="3.97605">
        <ele>478</ele>
        <time>2020-04-20T19:56:06Z</time>
      </trkpt>
      <trkpt lat="47.19584" lon="3.97568">
        <ele>475</ele>
        <time>2020-04-20T19:56:55Z</time>
      </trkpt>
      <trkpt lat="47.19587" lon="3.97517">
        <ele>475</ele>
        <time>2020-04-20T19:57:41Z</time>
      </trkpt>
      <trkpt lat="47.196" lon="3.97469">
        <ele>474</ele>
        <time>2020-04-20T19:58:28Z</time>
      </trkpt>
      <trkpt lat="47.196" lon="3.97444">
        <ele>473</ele>
        <time>2020-04-20T19:58:51Z</time>
      </trkpt>
      <trkpt lat="47.19569" lon="3.97386">
        <ele>473</ele>
        <time>2020-04-20T19:59:58Z</time>
      </trkpt>
      <trkpt lat="47.19559" lon="3.97335">
        <ele>474</ele>
        <time>2020-04-20T20:00:46Z</time>
      </trkpt>
      <trkpt lat="47.19528" lon="3.97247">
        <ele>480</ele>
        <time>2020-04-20T20:02:16Z</time>
      </trkpt>
      <trkpt lat="47.19516" lon="3.97221">
        <ele>481</ele>
        <time>2020-04-20T20:02:44Z</time>
      </trkpt>
      <trkpt lat="47.19406" lon="3.97075">
        <ele>488</ele>
        <time>2020-04-20T20:06:02Z</time>
      </trkpt>
      <trkpt lat="47.1937" lon="3.96994">
        <ele>495</ele>
        <time>2020-04-20T20:07:30Z</time>
      </trkpt>
      <trkpt lat="47.19353" lon="3.96933">
        <ele>500</ele>
        <time>2020-04-20T20:08:29Z</time>
      </trkpt>
      <trkpt lat="47.19334" lon="3.96916">
        <ele>503</ele>
        <time>2020-04-20T20:08:59Z</time>
      </trkpt>
      <trkpt lat="47.19244" lon="3.9689">
        <ele>514</ele>
        <time>2020-04-20T20:11:01Z</time>
      </trkpt>
      <trkpt lat="47.19208" lon="3.96868">
        <ele>517</ele>
        <time>2020-04-20T20:11:53Z</time>
      </trkpt>
      <trkpt lat="47.1917" lon="3.96825">
        <ele>521</ele>
        <time>2020-04-20T20:12:57Z</time>
      </trkpt>
      <trkpt lat="47.19101" lon="3.96779">
        <ele>526</ele>
        <time>2020-04-20T20:14:38Z</time>
      </trkpt>
      <trkpt lat="47.19057" lon="3.96768">
        <ele>528</ele>
        <time>2020-04-20T20:15:38Z</time>
      </trkpt>
      <trkpt lat="47.19017" lon="3.96775">
        <ele>529</ele>
        <time>2020-04-20T20:16:32Z</time>
      </trkpt>
      <trkpt lat="47.18916" lon="3.96641">
        <ele>531</ele>
        <time>2020-04-20T20:19:33Z</time>
      </trkpt>
      <trkpt lat="47.18862" lon="3.96502">
        <ele>530</ele>
        <time>2020-04-20T20:21:58Z</time>
      </trkpt>
      <trkpt lat="47.18863" lon="3.96459">
        <ele>530</ele>
        <time>2020-04-20T20:22:37Z</time>
      </trkpt>
      <trkpt lat="47.18885" lon="3.96419">
        <ele>527</ele>
        <time>2020-04-20T20:23:24Z</time>
      </trkpt>
      <trkpt lat="47.18883" lon="3.96388">
        <ele>526</ele>
        <time>2020-04-20T20:23:52Z</time>
      </trkpt>
      <trkpt lat="47.18864" lon="3.96363">
        <ele>526</ele>
        <time>2020-04-20T20:24:26Z</time>
      </trkpt>
      <trkpt lat="47.18823" lon="3.96331">
        <ele>527</ele>
        <time>2020-04-20T20:25:28Z</time>
      </trkpt>
      <trkpt lat="47.18788" lon="3.96308">
        <ele>530</ele>
        <time>2020-04-20T20:26:20Z</time>
      </trkpt>
      <trkpt lat="47.18775" lon="3.96263">
        <ele>530</ele>
        <time>2020-04-20T20:27:04Z</time>
      </trkpt>
      <trkpt lat="47.18766" lon="3.96187">
        <ele>533</ele>
        <time>2020-04-20T20:28:14Z</time>
      </trkpt>
      <trkpt lat="47.18771" lon="3.9613">
        <ele>536</ele>
        <time>2020-04-20T20:29:06Z</time>
      </trkpt>
      <trkpt lat="47.18752" lon="3.96061">
        <ele>538</ele>
        <time>2020-04-20T20:30:13Z</time>
      </trkpt>
      <trkpt lat="47.18709" lon="3.9596">
        <ele>544</ele>
        <time>2020-04-20T20:32:02Z</time>
      </trkpt>
      <trkpt lat="47.18701" lon="3.95918">
        <ele>547</ele>
        <time>2020-04-20T20:32:41Z</time>
      </trkpt>
      <trkpt lat="47.18692" lon="3.95846">
        <ele>550</ele>
        <time>2020-04-20T20:33:47Z</time>
      </trkpt>
      <trkpt lat="47.18673" lon="3.95794">
        <ele>551</ele>
        <time>2020-04-20T20:34:41Z</time>
      </trkpt>
      <trkpt lat="47.18665" lon="3.95722">
        <ele>552</ele>
        <time>2020-04-20T20:35:47Z</time>
      </trkpt>
      <trkpt lat="47.18661" lon="3.95632">
        <ele>553</ele>
        <time>2020-04-20T20:37:09Z</time>
      </trkpt>
      <trkpt lat="47.18646" lon="3.95483">
        <ele>554</ele>
        <time>2020-04-20T20:39:26Z</time>
      </trkpt>
      <trkpt lat="47.18647" lon="3.95293">
        <ele>553</ele>
        <time>2020-04-20T20:42:18Z</time>
      </trkpt>
      <trkpt lat="47.18613" lon="3.95005">
        <ele>554</ele>
        <time>2020-04-20T20:46:43Z</time>
      </trkpt>
      <trkpt lat="47.1859" lon="3.9491">
        <ele>556</ele>
        <time>2020-04-20T20:48:14Z</time>
      </trkpt>
      <trkpt lat="47.18533" lon="3.94717">
        <ele>564</ele>
        <time>2020-04-20T20:51:25Z</time>
      </trkpt>
      <trkpt lat="47.18567" lon="3.94614">
        <ele>564</ele>
        <time>2020-04-20T20:53:09Z</time>
      </trkpt>
      <trkpt lat="47.18594" lon="3.9455">
        <ele>564</ele>
        <time>2020-04-20T20:54:18Z</time>
      </trkpt>
      <trkpt lat="47.18592" lon="3.94516">
        <ele>564</ele>
        <time>2020-04-20T20:54:48Z</time>
      </trkpt>
      <trkpt lat="47.18549" lon="3.94464">
        <ele>564</ele>
        <time>2020-04-20T20:56:03Z</time>
      </trkpt>
      <trkpt lat="47.18495" lon="3.94454">
        <ele>561</ele>
        <time>2020-04-20T20:57:15Z</time>
      </trkpt>
      <trkpt lat="47.18466" lon="3.94483">
        <ele>559</ele>
        <time>2020-04-20T20:58:02Z</time>
      </trkpt>
      <trkpt lat="47.18438" lon="3.94499">
        <ele>559</ele>
        <time>2020-04-20T20:58:42Z</time>
      </trkpt>
      <trkpt lat="47.18357" lon="3.94496">
        <ele>556</ele>
        <time>2020-04-20T21:00:30Z</time>
      </trkpt>
      <trkpt lat="47.18333" lon="3.94508">
        <ele>558</ele>
        <time>2020-04-20T21:01:04Z</time>
      </trkpt>
      <trkpt lat="47.18256" lon="3.94567">
        <ele>565</ele>
        <time>2020-04-20T21:03:00Z</time>
      </trkpt>
      <trkpt lat="47.18218" lon="3.94603">
        <ele>562</ele>
        <time>2020-04-20T21:04:00Z</time>
      </trkpt>
      <trkpt lat="47.18152" lon="3.94659">
        <ele>551</ele>
        <time>2020-04-20T21:05:42Z</time>
      </trkpt>
      <trkpt lat="47.18114" lon="3.94666">
        <ele>548</ele>
        <time>2020-04-20T21:06:33Z</time>
      </trkpt>
      <trkpt lat="47.18056" lon="3.94594">
        <ele>542</ele>
        <time>2020-04-20T21:08:14Z</time>
      </trkpt>
      <trkpt lat="47.18023" lon="3.94624">
        <ele>544</ele>
        <time>2020-04-20T21:09:06Z</time>
      </trkpt>
      <trkpt lat="47.17955" lon="3.94664">
        <ele>542</ele>
        <time>2020-04-20T21:10:44Z</time>
      </trkpt>
      <trkpt lat="47.17937" lon="3.94681">
        <ele>541</ele>
        <time>2020-04-20T21:11:12Z</time>
      </trkpt>
      <trkpt lat="47.17921" lon="3.94731">
        <ele>542</ele>
        <time>2020-04-20T21:12:03Z</time>
      </trkpt>
      <trkpt lat="47.17899" lon="3.94733">
        <ele>541</ele>
        <time>2020-04-20T21:12:32Z</time>
      </trkpt>
      <trkpt lat="47.17859" lon="3.94725">
        <ele>539</ele>
        <time>2020-04-20T21:13:26Z</time>
      </trkpt>
      <trkpt lat="47.17821" lon="3.94732">
        <ele>539</ele>
        <time>2020-04-20T21:14:17Z</time>
      </trkpt>
      <trkpt lat="47.17792" lon="3.9475">
        <ele>540</ele>
        <time>2020-04-20T21:14:59Z</time>
      </trkpt>
      <trkpt lat="47.17736" lon="3.94817">
        <ele>540</ele>
        <time>2020-04-20T21:16:35Z</time>
      </trkpt>
      <trkpt lat="47.17607" lon="3.95005">
        <ele>533</ele>
        <time>2020-04-20T21:20:38Z</time>
      </trkpt>
      <trkpt lat="47.17535" lon="3.9509">
        <ele>526</ele>
        <time>2020-04-20T21:22:41Z</time>
      </trkpt>
      <trkpt lat="47.17498" lon="3.95149">
        <ele>520</ele>
        <time>2020-04-20T21:23:54Z</time>
      </trkpt>
      <trkpt lat="47.17391" lon="3.95249">
        <ele>519</ele>
        <time>2020-04-20T21:26:43Z</time>
      </trkpt>
      <trkpt lat="47.1737" lon="3.9525">
        <ele>521</ele>
        <time>2020-04-20T21:27:11Z</time>
      </trkpt>
      <trkpt lat="47.17333" lon="3.9524">
        <ele>523</ele>
        <time>2020-04-20T21:28:01Z</time>
      </trkpt>
      <trkpt lat="47.1731" lon="3.95219">
        <ele>523</ele>
        <time>2020-04-20T21:28:37Z</time>
      </trkpt>
      <trkpt lat="47.17291" lon="3.95208">
        <ele>524</ele>
        <time>2020-04-20T21:29:04Z</time>
      </trkpt>
      <trkpt lat="47.1721" lon="3.95205">
        <ele>527</ele>
        <time>2020-04-20T21:30:53Z</time>
      </trkpt>
      <trkpt lat="47.17181" lon="3.95195">
        <ele>527</ele>
        <time>2020-04-20T21:31:32Z</time>
      </trkpt>
      <trkpt lat="47.17159" lon="3.95167">
        <ele>526</ele>
        <time>2020-04-20T21:32:11Z</time>
      </trkpt>
      <trkpt lat="47.17143" lon="3.95127">
        <ele>529</ele>
        <time>2020-04-20T21:32:53Z</time>
      </trkpt>
      <trkpt lat="47.17112" lon="3.95008">
        <ele>536</ele>
        <time>2020-04-20T21:34:49Z</time>
      </trkpt>
      <trkpt lat="47.17062" lon="3.94902">
        <ele>540</ele>
        <time>2020-04-20T21:36:46Z</time>
      </trkpt>
      <trkpt lat="47.17006" lon="3.94838">
        <ele>539</ele>
        <time>2020-04-20T21:38:20Z</time>
      </trkpt>
      <trkpt lat="47.16933" lon="3.9478">
        <ele>534</ele>
        <time>2020-04-20T21:40:11Z</time>
      </trkpt>
      <trkpt lat="47.16922" lon="3.94777">
        <ele>534</ele>
        <time>2020-04-20T21:40:26Z</time>
      </trkpt>
      <trkpt lat="47.1691" lon="3.94748">
        <ele>533</ele>
        <time>2020-04-20T21:40:57Z</time>
      </trkpt>
      <trkpt lat="47.16843" lon="3.9468">
        <ele>525</ele>
        <time>2020-04-20T21:42:46Z</time>
      </trkpt>
      <trkpt lat="47.16798" lon="3.94645">
        <ele>517</ele>
        <time>2020-04-20T21:43:53Z</time>
      </trkpt>
      <trkpt lat="47.16782" lon="3.9464">
        <ele>514</ele>
        <time>2020-04-20T21:44:15Z</time>
      </trkpt>
      <trkpt lat="47.16769" lon="3.94595">
        <ele>511</ele>
        <time>2020-04-20T21:45:00Z</time>
      </trkpt>
      <trkpt lat="47.16759" lon="3.946">
        <ele>510</ele>
        <time>2020-04-20T21:45:14Z</time>
      </trkpt>
      <trkpt lat="47.16753" lon="3.94552">
        <ele>508</ele>
        <time>2020-04-20T21:45:58Z</time>
      </trkpt>
      <trkpt lat="47.1677" lon="3.9447">
        <ele>507</ele>
        <time>2020-04-20T21:47:16Z</time>
      </trkpt>
      <trkpt lat="47.16791" lon="3.9441">
        <ele>506</ele>
        <time>2020-04-20T21:48:17Z</time>
      </trkpt>
      <trkpt lat="47.16812" lon="3.94361">
        <ele>505</ele>
        <time>2020-04-20T21:49:10Z</time>
      </trkpt>
      <trkpt lat="47.16831" lon="3.94272">
        <ele>501</ele>
        <time>2020-04-20T21:50:34Z</time>
      </trkpt>
      <trkpt lat="47.16821" lon="3.94234">
        <ele>498</ele>
        <time>2020-04-20T21:51:11Z</time>
      </trkpt>
      <trkpt lat="47.16798" lon="3.94196">
        <ele>494</ele>
        <time>2020-04-20T21:51:57Z</time>
      </trkpt>
      <trkpt lat="47.16768" lon="3.94167">
        <ele>493</ele>
        <time>2020-04-20T21:52:45Z</time>
      </trkpt>
      <trkpt lat="47.16723" lon="3.9415">
        <ele>491</ele>
        <time>2020-04-20T21:53:47Z</time>
      </trkpt>
      <trkpt lat="47.16589" lon="3.94132">
        <ele>481</ele>
        <time>2020-04-20T21:56:47Z</time>
      </trkpt>
      <trkpt lat="47.16526" lon="3.94198">
        <ele>474</ele>
        <time>2020-04-20T21:58:30Z</time>
      </trkpt>
      <trkpt lat="47.16506" lon="3.94209">
        <ele>473</ele>
        <time>2020-04-20T21:58:59Z</time>
      </trkpt>
      <trkpt lat="47.16472" lon="3.94207">
        <ele>471</ele>
        <time>2020-04-20T21:59:44Z</time>
      </trkpt>
      <trkpt lat="47.16449" lon="3.94195">
        <ele>469</ele>
        <time>2020-04-20T22:00:16Z</time>
      </trkpt>
      <trkpt lat="47.16351" lon="3.94122">
        <ele>459</ele>
        <time>2020-04-20T22:02:43Z</time>
      </trkpt>
      <trkpt lat="47.16332" lon="3.9412">
        <ele>457</ele>
        <time>2020-04-20T22:03:09Z</time>
      </trkpt>
      <trkpt lat="47.16325" lon="3.94144">
        <ele>457</ele>
        <time>2020-04-20T22:03:32Z</time>
      </trkpt>
      <trkpt lat="47.16313" lon="3.94161">
        <ele>459</ele>
        <time>2020-04-20T22:03:54Z</time>
      </trkpt>
      <trkpt lat="47.1624" lon="3.94148">
        <ele>466</ele>
        <time>2020-04-20T22:05:33Z</time>
      </trkpt>
      <trkpt lat="47.16212" lon="3.94152">
        <ele>469</ele>
        <time>2020-04-20T22:06:10Z</time>
      </trkpt>
      <trkpt lat="47.16191" lon="3.94179">
        <ele>475</ele>
        <time>2020-04-20T22:06:47Z</time>
      </trkpt>
      <trkpt lat="47.16164" lon="3.94238">
        <ele>485</ele>
        <time>2020-04-20T22:07:52Z</time>
      </trkpt>
      <trkpt lat="47.16154" lon="3.94242">
        <ele>486</ele>
        <time>2020-04-20T22:08:06Z</time>
      </trkpt>
      <trkpt lat="47.16059" lon="3.94232">
        <ele>489</ele>
        <time>2020-04-20T22:10:13Z</time>
      </trkpt>
      <trkpt lat="47.16033" lon="3.94249">
        <ele>492</ele>
        <time>2020-04-20T22:10:51Z</time>
      </trkpt>
      <trkpt lat="47.16021" lon="3.94265">
        <ele>493</ele>
        <time>2020-04-20T22:11:12Z</time>
      </trkpt>
      <trkpt lat="47.15991" lon="3.94316">
        <ele>498</ele>
        <time>2020-04-20T22:12:14Z</time>
      </trkpt>
      <trkpt lat="47.15969" lon="3.94375">
        <ele>503</ele>
        <time>2020-04-20T22:13:15Z</time>
      </trkpt>
      <trkpt lat="47.15939" lon="3.94395">
        <ele>507</ele>
        <time>2020-04-20T22:13:59Z</time>
      </trkpt>
      <trkpt lat="47.15931" lon="3.94449">
        <ele>508</ele>
        <time>2020-04-20T22:14:49Z</time>
      </trkpt>
      <trkpt lat="47.15911" lon="3.94482">
        <ele>510</ele>
        <time>2020-04-20T22:15:29Z</time>
      </trkpt>
      <trkpt lat="47.15901" lon="3.94479">
        <ele>513</ele>
        <time>2020-04-20T22:15:42Z</time>
      </trkpt>
      <trkpt lat="47.15885" lon="3.94428">
        <ele>517</ele>
        <time>2020-04-20T22:16:33Z</time>
      </trkpt>
      <trkpt lat="47.15869" lon="3.94353">
        <ele>519</ele>
        <time>2020-04-20T22:17:45Z</time>
      </trkpt>
      <trkpt lat="47.1586" lon="3.94325">
        <ele>520</ele>
        <time>2020-04-20T22:18:13Z</time>
      </trkpt>
      <trkpt lat="47.15831" lon="3.94282">
        <ele>521</ele>
        <time>2020-04-20T22:19:08Z</time>
      </trkpt>
      <trkpt lat="47.15634" lon="3.9402">
        <ele>523</ele>
        <time>2020-04-20T22:25:02Z</time>
      </trkpt>
      <trkpt lat="47.15575" lon="3.93915">
        <ele>524</ele>
        <time>2020-04-20T22:27:06Z</time>
      </trkpt>
      <trkpt lat="47.15558" lon="3.93863">
        <ele>525</ele>
        <time>2020-04-20T22:27:58Z</time>
      </trkpt>
      <trkpt lat="47.15558" lon="3.9382">
        <ele>524</ele>
        <time>2020-04-20T22:28:37Z</time>
      </trkpt>
      <trkpt lat="47.15546" lon="3.93757">
        <ele>525</ele>
        <time>2020-04-20T22:29:37Z</time>
      </trkpt>
      <trkpt lat="47.15552" lon="3.93627">
        <ele>524</ele>
        <time>2020-04-20T22:31:35Z</time>
      </trkpt>
      <trkpt lat="47.15549" lon="3.93518">
        <ele>527</ele>
        <time>2020-04-20T22:33:14Z</time>
      </trkpt>
      <trkpt lat="47.15566" lon="3.93461">
        <ele>534</ele>
        <time>2020-04-20T22:34:10Z</time>
      </trkpt>
      <trkpt lat="47.15568" lon="3.93394">
        <ele>542</ele>
        <time>2020-04-20T22:35:11Z</time>
      </trkpt>
      <trkpt lat="47.15591" lon="3.93315">
        <ele>543</ele>
        <time>2020-04-20T22:36:29Z</time>
      </trkpt>
      <trkpt lat="47.15599" lon="3.93276">
        <ele>543</ele>
        <time>2020-04-20T22:37:06Z</time>
      </trkpt>
      <trkpt lat="47.15599" lon="3.93223">
        <ele>544</ele>
        <time>2020-04-20T22:37:54Z</time>
      </trkpt>
      <trkpt lat="47.15589" lon="3.93137">
        <ele>544</ele>
        <time>2020-04-20T22:39:13Z</time>
      </trkpt>
      <trkpt lat="47.1557" lon="3.93062">
        <ele>546</ele>
        <time>2020-04-20T22:40:26Z</time>
      </trkpt>
      <trkpt lat="47.15509" lon="3.92904">
        <ele>542</ele>
        <time>2020-04-20T22:43:11Z</time>
      </trkpt>
      <trkpt lat="47.15494" lon="3.9283">
        <ele>535</ele>
        <time>2020-04-20T22:44:21Z</time>
      </trkpt>
      <trkpt lat="47.15474" lon="3.9264">
        <ele>524</ele>
        <time>2020-04-20T22:47:15Z</time>
      </trkpt>
      <trkpt lat="47.15474" lon="3.92579">
        <ele>520</ele>
        <time>2020-04-20T22:48:11Z</time>
      </trkpt>
      <trkpt lat="47.15469" lon="3.92466">
        <ele>514</ele>
        <time>2020-04-20T22:49:54Z</time>
      </trkpt>
      <trkpt lat="47.1546" lon="3.92403">
        <ele>511</ele>
        <time>2020-04-20T22:50:52Z</time>
      </trkpt>
      <trkpt lat="47.15449" lon="3.92359">
        <ele>508</ele>
        <time>2020-04-20T22:51:34Z</time>
      </trkpt>
      <trkpt lat="47.15424" lon="3.92303">
        <ele>506</ele>
        <time>2020-04-20T22:52:35Z</time>
      </trkpt>
      <trkpt lat="47.15401" lon="3.92244">
        <ele>504</ele>
        <time>2020-04-20T22:53:37Z</time>
      </trkpt>
      <trkpt lat="47.15367" lon="3.92195">
        <ele>502</ele>
        <time>2020-04-20T22:54:41Z</time>
      </trkpt>
      <trkpt lat="47.15333" lon="3.92102">
        <ele>498</ele>
        <time>2020-04-20T22:56:16Z</time>
      </trkpt>
      <trkpt lat="47.15296" lon="3.92033">
        <ele>495</ele>
        <time>2020-04-20T22:57:36Z</time>
      </trkpt>
      <trkpt lat="47.1528" lon="3.92013">
        <ele>493</ele>
        <time>2020-04-20T22:58:04Z</time>
      </trkpt>
      <trkpt lat="47.15275" lon="3.91996">
        <ele>493</ele>
        <time>2020-04-20T22:58:21Z</time>
      </trkpt>
      <trkpt lat="47.15257" lon="3.91959">
        <ele>492</ele>
        <time>2020-04-20T22:59:02Z</time>
      </trkpt>
      <trkpt lat="47.15198" lon="3.91815">
        <ele>488</ele>
        <time>2020-04-20T23:01:35Z</time>
      </trkpt>
      <trkpt lat="47.15137" lon="3.9178">
        <ele>482</ele>
        <time>2020-04-20T23:03:02Z</time>
      </trkpt>
      <trkpt lat="47.15078" lon="3.91723">
        <ele>474</ele>
        <time>2020-04-20T23:04:36Z</time>
      </trkpt>
      <trkpt lat="47.14971" lon="3.91607">
        <ele>453</ele>
        <time>2020-04-20T23:07:34Z</time>
      </trkpt>
      <trkpt lat="47.14937" lon="3.91554">
        <ele>445</ele>
        <time>2020-04-20T23:08:40Z</time>
      </trkpt>
      <trkpt lat="47.14899" lon="3.91479">
        <ele>435</ele>
        <time>2020-04-20T23:10:05Z</time>
      </trkpt>
      <trkpt lat="47.1488" lon="3.91421">
        <ele>428</ele>
        <time>2020-04-20T23:11:03Z</time>
      </trkpt>
      <trkpt lat="47.1485" lon="3.9137">
        <ele>419</ele>
        <time>2020-04-20T23:12:04Z</time>
      </trkpt>
      <trkpt lat="47.14821" lon="3.91339">
        <ele>412</ele>
        <time>2020-04-20T23:12:52Z</time>
      </trkpt>
      <trkpt lat="47.14794" lon="3.91333">
        <ele>408</ele>
        <time>2020-04-20T23:13:29Z</time>
      </trkpt>
      <trkpt lat="47.14769" lon="3.91343">
        <ele>404</ele>
        <time>2020-04-20T23:14:03Z</time>
      </trkpt>
      <trkpt lat="47.14734" lon="3.91368">
        <ele>397</ele>
        <time>2020-04-20T23:14:55Z</time>
      </trkpt>
      <trkpt lat="47.1471" lon="3.91377">
        <ele>392</ele>
        <time>2020-04-20T23:15:28Z</time>
      </trkpt>
      <trkpt lat="47.14651" lon="3.91371">
        <ele>380</ele>
        <time>2020-04-20T23:16:47Z</time>
      </trkpt>
      <trkpt lat="47.14621" lon="3.91354">
        <ele>376</ele>
        <time>2020-04-20T23:17:30Z</time>
      </trkpt>
      <trkpt lat="47.14611" lon="3.91339">
        <ele>374</ele>
        <time>2020-04-20T23:17:49Z</time>
      </trkpt>
      <trkpt lat="47.14572" lon="3.91323">
        <ele>368</ele>
        <time>2020-04-20T23:18:43Z</time>
      </trkpt>
      <trkpt lat="47.14542" lon="3.91286">
        <ele>364</ele>
        <time>2020-04-20T23:19:35Z</time>
      </trkpt>
      <trkpt lat="47.14513" lon="3.91268">
        <ele>359</ele>
        <time>2020-04-20T23:20:17Z</time>
      </trkpt>
      <trkpt lat="47.14485" lon="3.91261">
        <ele>356</ele>
        <time>2020-04-20T23:20:55Z</time>
      </trkpt>
      <trkpt lat="47.14444" lon="3.91261">
        <ele>354</ele>
        <time>2020-04-20T23:21:50Z</time>
      </trkpt>
      <trkpt lat="47.14416" lon="3.91255">
        <ele>354</ele>
        <time>2020-04-20T23:22:28Z</time>
      </trkpt>
      <trkpt lat="47.14389" lon="3.9131">
        <ele>347</ele>
        <time>2020-04-20T23:23:29Z</time>
      </trkpt>
      <trkpt lat="47.14389" lon="3.91341">
        <ele>346</ele>
        <time>2020-04-20T23:23:57Z</time>
      </trkpt>
      <trkpt lat="47.14423" lon="3.91384">
        <ele>347</ele>
        <time>2020-04-20T23:24:57Z</time>
      </trkpt>
      <trkpt lat="47.14431" lon="3.91415">
        <ele>347</ele>
        <time>2020-04-20T23:25:27Z</time>
      </trkpt>
      <trkpt lat="47.14419" lon="3.9149">
        <ele>346</ele>
        <time>2020-04-20T23:26:37Z</time>
      </trkpt>
      <trkpt lat="47.14415" lon="3.91547">
        <ele>346</ele>
        <time>2020-04-20T23:27:29Z</time>
      </trkpt>
      <trkpt lat="47.14454" lon="3.9166">
        <ele>347</ele>
        <time>2020-04-20T23:29:24Z</time>
      </trkpt>
      <trkpt lat="47.14449" lon="3.91711">
        <ele>346</ele>
        <time>2020-04-20T23:30:11Z</time>
      </trkpt>
      <trkpt lat="47.14393" lon="3.91807">
        <ele>341</ele>
        <time>2020-04-20T23:32:06Z</time>
      </trkpt>
      <trkpt lat="47.1439" lon="3.91848">
        <ele>341</ele>
        <time>2020-04-20T23:32:43Z</time>
      </trkpt>
      <trkpt lat="47.14406" lon="3.91901">
        <ele>344</ele>
        <time>2020-04-20T23:33:36Z</time>
      </trkpt>
      <trkpt lat="47.14407" lon="3.91987">
        <ele>348</ele>
        <time>2020-04-20T23:34:54Z</time>
      </trkpt>
      <trkpt lat="47.144" lon="3.92082">
        <ele>350</ele>
        <time>2020-04-20T23:36:21Z</time>
      </trkpt>
      <trkpt lat="47.14388" lon="3.92153">
        <ele>345</ele>
        <time>2020-04-20T23:37:27Z</time>
      </trkpt>
      <trkpt lat="47.1439" lon="3.92199">
        <ele>342</ele>
        <time>2020-04-20T23:38:09Z</time>
      </trkpt>
      <trkpt lat="47.14403" lon="3.92243">
        <ele>341</ele>
        <time>2020-04-20T23:38:53Z</time>
      </trkpt>
      <trkpt lat="47.14406" lon="3.92281">
        <ele>339</ele>
        <time>2020-04-20T23:39:27Z</time>
      </trkpt>
      <trkpt lat="47.14397" lon="3.92309">
        <ele>337</ele>
        <time>2020-04-20T23:39:55Z</time>
      </trkpt>
      <trkpt lat="47.14366" lon="3.92351">
        <ele>334</ele>
        <time>2020-04-20T23:40:52Z</time>
      </trkpt>
      <trkpt lat="47.1435" lon="3.92425">
        <ele>333</ele>
        <time>2020-04-20T23:42:02Z</time>
      </trkpt>
      <trkpt lat="47.14322" lon="3.92659">
        <ele>330</ele>
        <time>2020-04-20T23:45:38Z</time>
      </trkpt>
      <trkpt lat="47.14322" lon="3.9281">
        <ele>332</ele>
        <time>2020-04-20T23:47:55Z</time>
      </trkpt>
      <trkpt lat="47.14313" lon="3.92822">
        <ele>330</ele>
        <time>2020-04-20T23:48:11Z</time>
      </trkpt>
      <trkpt lat="47.14201" lon="3.92869">
        <ele>330</ele>
        <time>2020-04-20T23:50:46Z</time>
      </trkpt>
      <trkpt lat="47.14171" lon="3.92841">
        <ele>331</ele>
        <time>2020-04-20T23:51:34Z</time>
      </trkpt>
      <trkpt lat="47.1414" lon="3.92817">
        <ele>331</ele>
        <time>2020-04-20T23:52:21Z</time>
      </trkpt>
      <trkpt lat="47.14052" lon="3.92851">
        <ele>342</ele>
        <time>2020-04-20T23:54:22Z</time>
      </trkpt>
      <trkpt lat="47.1403" lon="3.92833">
        <ele>343</ele>
        <time>2020-04-20T23:54:56Z</time>
      </trkpt>
      <trkpt lat="47.14011" lon="3.92792">
        <ele>344</ele>
        <time>2020-04-20T23:55:41Z</time>
      </trkpt>
      <trkpt lat="47.14006" lon="3.92757">
        <ele>344</ele>
        <time>2020-04-20T23:56:13Z</time>
      </trkpt>
      <trkpt lat="47.14004" lon="3.92667">
        <ele>340</ele>
        <time>2020-04-20T23:57:35Z</time>
      </trkpt>
      <trkpt lat="47.13983" lon="3.92584">
        <ele>344</ele>
        <time>2020-04-20T23:58:55Z</time>
      </trkpt>
      <trkpt lat="47.13972" lon="3.92589">
        <ele>347</ele>
        <time>2020-04-20T23:59:11Z</time>
      </trkpt>
      <trkpt lat="47.13964" lon="3.92643">
        <ele>351</ele>
        <time>2020-04-21T00:00:01Z</time>
      </trkpt>
      <trkpt lat="47.13956" lon="3.92636">
        <ele>353</ele>
        <time>2020-04-21T00:00:13Z</time>
      </trkpt>
      <trkpt lat="47.13945" lon="3.92541">
        <ele>352</ele>
        <time>2020-04-21T00:01:41Z</time>
      </trkpt>
      <trkpt lat="47.13924" lon="3.92484">
        <ele>356</ele>
        <time>2020-04-21T00:02:40Z</time>
      </trkpt>
      <trkpt lat="47.13913" lon="3.92417">
        <ele>356</ele>
        <time>2020-04-21T00:03:42Z</time>
      </trkpt>
      <trkpt lat="47.13867" lon="3.92392">
        <ele>360</ele>
        <time>2020-04-21T00:04:48Z</time>
      </trkpt>
      <trkpt lat="47.13864" lon="3.92343">
        <ele>356</ele>
        <time>2020-04-21T00:05:32Z</time>
      </trkpt>
      <trkpt lat="47.13842" lon="3.92301">
        <ele>354</ele>
        <time>2020-04-21T00:06:20Z</time>
      </trkpt>
      <trkpt lat="47.13793" lon="3.92332">
        <ele>355</ele>
        <time>2020-04-21T00:07:32Z</time>
      </trkpt>
      <trkpt lat="47.13719" lon="3.92407">
        <ele>359</ele>
        <time>2020-04-21T00:09:31Z</time>
      </trkpt>
      <trkpt lat="47.1368" lon="3.92451">
        <ele>360</ele>
        <time>2020-04-21T00:10:37Z</time>
      </trkpt>
      <trkpt lat="47.13651" lon="3.92472">
        <ele>360</ele>
        <time>2020-04-21T00:11:20Z</time>
      </trkpt>
      <trkpt lat="47.13631" lon="3.92502">
        <ele>360</ele>
        <time>2020-04-21T00:11:58Z</time>
      </trkpt>
      <trkpt lat="47.13609" lon="3.92506">
        <ele>359</ele>
        <time>2020-04-21T00:12:28Z</time>
      </trkpt>
      <trkpt lat="47.13526" lon="3.92486">
        <ele>358</ele>
        <time>2020-04-21T00:14:20Z</time>
      </trkpt>
      <trkpt lat="47.13501" lon="3.92445">
        <ele>359</ele>
        <time>2020-04-21T00:15:10Z</time>
      </trkpt>
      <trkpt lat="47.13481" lon="3.9235">
        <ele>362</ele>
        <time>2020-04-21T00:16:40Z</time>
      </trkpt>
      <trkpt lat="47.13465" lon="3.92291">
        <ele>365</ele>
        <time>2020-04-21T00:17:38Z</time>
      </trkpt>
      <trkpt lat="47.13417" lon="3.92237">
        <ele>369</ele>
        <time>2020-04-21T00:18:59Z</time>
      </trkpt>
      <trkpt lat="47.13388" lon="3.92161">
        <ele>365</ele>
        <time>2020-04-21T00:20:18Z</time>
      </trkpt>
      <trkpt lat="47.13471" lon="3.92076">
        <ele>367</ele>
        <time>2020-04-21T00:22:33Z</time>
      </trkpt>
      <trkpt lat="47.13491" lon="3.92061">
        <ele>368</ele>
        <time>2020-04-21T00:23:03Z</time>
      </trkpt>
      <trkpt lat="47.13518" lon="3.92056">
        <ele>368</ele>
        <time>2020-04-21T00:23:39Z</time>
      </trkpt>
      <trkpt lat="47.13557" lon="3.92058">
        <ele>366</ele>
        <time>2020-04-21T00:24:31Z</time>
      </trkpt>
      <trkpt lat="47.13591" lon="3.9205">
        <ele>365</ele>
        <time>2020-04-21T00:25:17Z</time>
      </trkpt>
      <trkpt lat="47.13646" lon="3.92002">
        <ele>357</ele>
        <time>2020-04-21T00:26:43Z</time>
      </trkpt>
      <trkpt lat="47.13683" lon="3.91961">
        <ele>355</ele>
        <time>2020-04-21T00:27:44Z</time>
      </trkpt>
      <trkpt lat="47.13712" lon="3.91918">
        <ele>354</ele>
        <time>2020-04-21T00:28:39Z</time>
      </trkpt>
      <trkpt lat="47.13752" lon="3.91835">
        <ele>354</ele>
        <time>2020-04-21T00:30:12Z</time>
      </trkpt>
      <trkpt lat="47.13794" lon="3.91787">
        <ele>347</ele>
        <time>2020-04-21T00:31:23Z</time>
      </trkpt>
      <trkpt lat="47.13838" lon="3.91696">
        <ele>345</ele>
        <time>2020-04-21T00:33:04Z</time>
      </trkpt>
      <trkpt lat="47.13888" lon="3.91663">
        <ele>337</ele>
        <time>2020-04-21T00:34:17Z</time>
      </trkpt>
      <trkpt lat="47.13916" lon="3.91619">
        <ele>333</ele>
        <time>2020-04-21T00:35:12Z</time>
      </trkpt>
      <trkpt lat="47.1394" lon="3.91571">
        <ele>331</ele>
        <time>2020-04-21T00:36:06Z</time>
      </trkpt>
      <trkpt lat="47.13943" lon="3.91518">
        <ele>331</ele>
        <time>2020-04-21T00:36:54Z</time>
      </trkpt>
      <trkpt lat="47.13926" lon="3.91442">
        <ele>331</ele>
        <time>2020-04-21T00:38:07Z</time>
      </trkpt>
      <trkpt lat="47.13903" lon="3.91403">
        <ele>331</ele>
        <time>2020-04-21T00:38:54Z</time>
      </trkpt>
      <trkpt lat="47.13892" lon="3.91364">
        <ele>331</ele>
        <time>2020-04-21T00:39:32Z</time>
      </trkpt>
      <trkpt lat="47.13896" lon="3.91303">
        <ele>327</ele>
        <time>2020-04-21T00:40:28Z</time>
      </trkpt>
      <trkpt lat="47.13878" lon="3.91228">
        <ele>332</ele>
        <time>2020-04-21T00:41:40Z</time>
      </trkpt>
      <trkpt lat="47.13875" lon="3.91191">
        <ele>332</ele>
        <time>2020-04-21T00:42:14Z</time>
      </trkpt>
      <trkpt lat="47.13882" lon="3.91152">
        <ele>330</ele>
        <time>2020-04-21T00:42:50Z</time>
      </trkpt>
      <trkpt lat="47.13886" lon="3.91107">
        <ele>328</ele>
        <time>2020-04-21T00:43:31Z</time>
      </trkpt>
      <trkpt lat="47.13878" lon="3.91075">
        <ele>328</ele>
        <time>2020-04-21T00:44:02Z</time>
      </trkpt>
      <trkpt lat="47.13859" lon="3.9104">
        <ele>329</ele>
        <time>2020-04-21T00:44:43Z</time>
      </trkpt>
      <trkpt lat="47.13807" lon="3.90996">
        <ele>335</ele>
        <time>2020-04-21T00:46:03Z</time>
      </trkpt>
      <trkpt lat="47.13762" lon="3.9098">
        <ele>345</ele>
        <time>2020-04-21T00:47:05Z</time>
      </trkpt>
      <trkpt lat="47.13696" lon="3.90986">
        <ele>346</ele>
        <time>2020-04-21T00:48:33Z</time>
      </trkpt>
      <trkpt lat="47.13639" lon="3.91005">
        <ele>346</ele>
        <time>2020-04-21T00:49:51Z</time>
      </trkpt>
      <trkpt lat="47.13519" lon="3.91075">
        <ele>344</ele>
        <time>2020-04-21T00:52:43Z</time>
      </trkpt>
      <trkpt lat="47.13474" lon="3.91071">
        <ele>339</ele>
        <time>2020-04-21T00:53:44Z</time>
      </trkpt>
      <trkpt lat="47.13428" lon="3.91071">
        <ele>333</ele>
        <time>2020-04-21T00:54:45Z</time>
      </trkpt>
      <trkpt lat="47.1341" lon="3.91081">
        <ele>332</ele>
        <time>2020-04-21T00:55:11Z</time>
      </trkpt>
      <trkpt lat="47.1339" lon="3.91073">
        <ele>330</ele>
        <time>2020-04-21T00:55:38Z</time>
      </trkpt>
      <trkpt lat="47.13374" lon="3.91074">
        <ele>330</ele>
        <time>2020-04-21T00:56:00Z</time>
      </trkpt>
      <trkpt lat="47.13349" lon="3.91089">
        <ele>329</ele>
        <time>2020-04-21T00:56:36Z</time>
      </trkpt>
      <trkpt lat="47.13327" lon="3.91106">
        <ele>329</ele>
        <time>2020-04-21T00:57:09Z</time>
      </trkpt>
      <trkpt lat="47.13311" lon="3.91097">
        <ele>328</ele>
        <time>2020-04-21T00:57:32Z</time>
      </trkpt>
      <trkpt lat="47.13291" lon="3.91096">
        <ele>326</ele>
        <time>2020-04-21T00:57:58Z</time>
      </trkpt>
      <trkpt lat="47.1326" lon="3.91118">
        <ele>326</ele>
        <time>2020-04-21T00:58:44Z</time>
      </trkpt>
      <trkpt lat="47.13217" lon="3.91167">
        <ele>327</ele>
        <time>2020-04-21T00:59:57Z</time>
      </trkpt>
      <trkpt lat="47.13196" lon="3.91213">
        <ele>326</ele>
        <time>2020-04-21T01:00:47Z</time>
      </trkpt>
      <trkpt lat="47.13163" lon="3.91391">
        <ele>327</ele>
        <time>2020-04-21T01:03:35Z</time>
      </trkpt>
      <trkpt lat="47.13092" lon="3.91507">
        <ele>330</ele>
        <time>2020-04-21T01:05:56Z</time>
      </trkpt>
      <trkpt lat="47.13088" lon="3.91578">
        <ele>333</ele>
        <time>2020-04-21T01:07:01Z</time>
      </trkpt>
      <trkpt lat="47.13116" lon="3.91652">
        <ele>339</ele>
        <time>2020-04-21T01:08:18Z</time>
      </trkpt>
      <trkpt lat="47.13152" lon="3.91667">
        <ele>344</ele>
        <time>2020-04-21T01:09:08Z</time>
      </trkpt>
      <trkpt lat="47.13206" lon="3.9171">
        <ele>349</ele>
        <time>2020-04-21T01:10:30Z</time>
      </trkpt>
      <trkpt lat="47.13238" lon="3.91819">
        <ele>352</ele>
        <time>2020-04-21T01:12:18Z</time>
      </trkpt>
      <trkpt lat="47.13266" lon="3.91896">
        <ele>354</ele>
        <time>2020-04-21T01:13:37Z</time>
      </trkpt>
      <trkpt lat="47.13222" lon="3.91895">
        <ele>348</ele>
        <time>2020-04-21T01:14:36Z</time>
      </trkpt>
      <trkpt lat="47.13207" lon="3.91905">
        <ele>346</ele>
        <time>2020-04-21T01:14:58Z</time>
      </trkpt>
      <trkpt lat="47.13193" lon="3.91922">
        <ele>345</ele>
        <time>2020-04-21T01:15:22Z</time>
      </trkpt>
      <trkpt lat="47.13179" lon="3.91949">
        <ele>345</ele>
        <time>2020-04-21T01:15:53Z</time>
      </trkpt>
      <trkpt lat="47.13157" lon="3.91964">
        <ele>345</ele>
        <time>2020-04-21T01:16:25Z</time>
      </trkpt>
      <trkpt lat="47.13107" lon="3.91974">
        <ele>347</ele>
        <time>2020-04-21T01:17:32Z</time>
      </trkpt>
      <trkpt lat="47.13052" lon="3.91972">
        <ele>348</ele>
        <time>2020-04-21T01:18:46Z</time>
      </trkpt>
      <trkpt lat="47.13003" lon="3.91963">
        <ele>348</ele>
        <time>2020-04-21T01:19:52Z</time>
      </trkpt>
      <trkpt lat="47.12937" lon="3.91946">
        <ele>343</ele>
        <time>2020-04-21T01:21:21Z</time>
      </trkpt>
      <trkpt lat="47.12904" lon="3.91943">
        <ele>342</ele>
        <time>2020-04-21T01:22:05Z</time>
      </trkpt>
      <trkpt lat="47.12857" lon="3.91952">
        <ele>343</ele>
        <time>2020-04-21T01:23:08Z</time>
      </trkpt>
      <trkpt lat="47.12847" lon="3.91969">
        <ele>346</ele>
        <time>2020-04-21T01:23:29Z</time>
      </trkpt>
      <trkpt lat="47.12818" lon="3.92008">
        <ele>350</ele>
        <time>2020-04-21T01:24:21Z</time>
      </trkpt>
      <trkpt lat="47.12764" lon="3.9205">
        <ele>348</ele>
        <time>2020-04-21T01:25:43Z</time>
      </trkpt>
      <trkpt lat="47.12756" lon="3.92077">
        <ele>350</ele>
        <time>2020-04-21T01:26:10Z</time>
      </trkpt>
      <trkpt lat="47.12737" lon="3.92224">
        <ele>353</ele>
        <time>2020-04-21T01:28:25Z</time>
      </trkpt>
      <trkpt lat="47.12706" lon="3.92366">
        <ele>348</ele>
        <time>2020-04-21T01:30:41Z</time>
      </trkpt>
      <trkpt lat="47.12657" lon="3.92542">
        <ele>346</ele>
        <time>2020-04-21T01:33:33Z</time>
      </trkpt>
      <trkpt lat="47.12609" lon="3.92623">
        <ele>342</ele>
        <time>2020-04-21T01:35:11Z</time>
      </trkpt>
      <trkpt lat="47.12586" lon="3.92675">
        <ele>340</ele>
        <time>2020-04-21T01:36:07Z</time>
      </trkpt>
      <trkpt lat="47.12544" lon="3.92706">
        <ele>335</ele>
        <time>2020-04-21T01:37:10Z</time>
      </trkpt>
      <trkpt lat="47.12538" lon="3.9273">
        <ele>335</ele>
        <time>2020-04-21T01:37:33Z</time>
      </trkpt>
      <trkpt lat="47.12538" lon="3.9276">
        <ele>336</ele>
        <time>2020-04-21T01:38:01Z</time>
      </trkpt>
      <trkpt lat="47.12551" lon="3.92798">
        <ele>336</ele>
        <time>2020-04-21T01:38:39Z</time>
      </trkpt>
      <trkpt lat="47.12548" lon="3.92816">
        <ele>335</ele>
        <time>2020-04-21T01:38:56Z</time>
      </trkpt>
      <trkpt lat="47.12521" lon="3.92851">
        <ele>335</ele>
        <time>2020-04-21T01:39:44Z</time>
      </trkpt>
      <trkpt lat="47.12503" lon="3.92881">
        <ele>335</ele>
        <time>2020-04-21T01:40:20Z</time>
      </trkpt>
      <trkpt lat="47.12483" lon="3.92885">
        <ele>335</ele>
        <time>2020-04-21T01:40:47Z</time>
      </trkpt>
      <trkpt lat="47.12476" lon="3.92916">
        <ele>335</ele>
        <time>2020-04-21T01:41:17Z</time>
      </trkpt>
      <trkpt lat="47.12451" lon="3.92972">
        <ele>338</ele>
        <time>2020-04-21T01:42:18Z</time>
      </trkpt>
      <trkpt lat="47.12476" lon="3.93004">
        <ele>341</ele>
        <time>2020-04-21T01:43:02Z</time>
      </trkpt>
      <trkpt lat="47.12484" lon="3.93032">
        <ele>345</ele>
        <time>2020-04-21T01:43:30Z</time>
      </trkpt>
      <trkpt lat="47.12505" lon="3.93138">
        <ele>369</ele>
        <time>2020-04-21T01:45:10Z</time>
      </trkpt>
      <trkpt lat="47.12509" lon="3.93169">
        <ele>378</ele>
        <time>2020-04-21T01:45:38Z</time>
      </trkpt>
      <trkpt lat="47.125" lon="3.93248">
        <ele>396</ele>
        <time>2020-04-21T01:46:51Z</time>
      </trkpt>
      <trkpt lat="47.12492" lon="3.93285">
        <ele>397</ele>
        <time>2020-04-21T01:47:26Z</time>
      </trkpt>
      <trkpt lat="47.12502" lon="3.93335">
        <ele>404</ele>
        <time>2020-04-21T01:48:14Z</time>
      </trkpt>
      <trkpt lat="47.12531" lon="3.93398">
        <ele>408</ele>
        <time>2020-04-21T01:49:23Z</time>
      </trkpt>
      <trkpt lat="47.12553" lon="3.93439">
        <ele>413</ele>
        <time>2020-04-21T01:50:10Z</time>
      </trkpt>
      <trkpt lat="47.12641" lon="3.93542">
        <ele>432</ele>
        <time>2020-04-21T01:52:40Z</time>
      </trkpt>
      <trkpt lat="47.12723" lon="3.93589">
        <ele>454</ele>
        <time>2020-04-21T01:54:38Z</time>
      </trkpt>
      <trkpt lat="47.12813" lon="3.93635">
        <ele>473</ele>
        <time>2020-04-21T01:56:45Z</time>
      </trkpt>
      <trkpt lat="47.12853" lon="3.93676">
        <ele>482</ele>
        <time>2020-04-21T01:57:50Z</time>
      </trkpt>
      <trkpt lat="47.12876" lon="3.93728">
        <ele>488</ele>
        <time>2020-04-21T01:58:46Z</time>
      </trkpt>
      <trkpt lat="47.12918" lon="3.93927">
        <ele>496</ele>
        <time>2020-04-21T02:01:55Z</time>
      </trkpt>
      <trkpt lat="47.12883" lon="3.93982">
        <ele>494</ele>
        <time>2020-04-21T02:03:04Z</time>
      </trkpt>
      <trkpt lat="47.12847" lon="3.94013">
        <ele>491</ele>
        <time>2020-04-21T02:04:00Z</time>
      </trkpt>
      <trkpt lat="47.12806" lon="3.94059">
        <ele>488</ele>
        <time>2020-04-21T02:05:08Z</time>
      </trkpt>
      <trkpt lat="47.12733" lon="3.94153">
        <ele>480</ele>
        <time>2020-04-21T02:07:18Z</time>
      </trkpt>
      <trkpt lat="47.12725" lon="3.94189">
        <ele>478</ele>
        <time>2020-04-21T02:07:52Z</time>
      </trkpt>
      <trkpt lat="47.12721" lon="3.94196">
        <ele>478</ele>
        <time>2020-04-21T02:08:01Z</time>
      </trkpt>
      <trkpt lat="47.12707" lon="3.942">
        <ele>476</ele>
        <time>2020-04-21T02:08:20Z</time>
      </trkpt>
      <trkpt lat="47.12677" lon="3.94157">
        <ele>472</ele>
        <time>2020-04-21T02:09:16Z</time>
      </trkpt>
      <trkpt lat="47.1262" lon="3.94147">
        <ele>473</ele>
        <time>2020-04-21T02:10:32Z</time>
      </trkpt>
      <trkpt lat="47.12608" lon="3.94131">
        <ele>473</ele>
        <time>2020-04-21T02:10:54Z</time>
      </trkpt>
      <trkpt lat="47.12597" lon="3.94128">
        <ele>473</ele>
        <time>2020-04-21T02:11:09Z</time>
      </trkpt>
      <trkpt lat="47.12565" lon="3.94162">
        <ele>478</ele>
        <time>2020-04-21T02:12:01Z</time>
      </trkpt>
      <trkpt lat="47.12556" lon="3.94187">
        <ele>481</ele>
        <time>2020-04-21T02:12:27Z</time>
      </trkpt>
      <trkpt lat="47.12552" lon="3.94228">
        <ele>484</ele>
        <time>2020-04-21T02:13:05Z</time>
      </trkpt>
      <trkpt lat="47.12544" lon="3.94322">
        <ele>492</ele>
        <time>2020-04-21T02:14:31Z</time>
      </trkpt>
      <trkpt lat="47.12547" lon="3.94351">
        <ele>494</ele>
        <time>2020-04-21T02:14:57Z</time>
      </trkpt>
      <trkpt lat="47.12546" lon="3.94381">
        <ele>497</ele>
        <time>2020-04-21T02:15:25Z</time>
      </trkpt>
      <trkpt lat="47.12525" lon="3.9444">
        <ele>506</ele>
        <time>2020-04-21T02:16:25Z</time>
      </trkpt>
      <trkpt lat="47.12479" lon="3.94475">
        <ele>516</ele>
        <time>2020-04-21T02:17:34Z</time>
      </trkpt>
      <trkpt lat="47.12418" lon="3.94542">
        <ele>521</ele>
        <time>2020-04-21T02:19:16Z</time>
      </trkpt>
      <trkpt lat="47.12356" lon="3.94621">
        <ele>522</ele>
        <time>2020-04-21T02:21:05Z</time>
      </trkpt>
      <trkpt lat="47.12325" lon="3.94689">
        <ele>525</ele>
        <time>2020-04-21T02:22:20Z</time>
      </trkpt>
      <trkpt lat="47.12267" lon="3.94797">
        <ele>525</ele>
        <time>2020-04-21T02:24:25Z</time>
      </trkpt>
      <trkpt lat="47.12224" lon="3.94857">
        <ele>526</ele>
        <time>2020-04-21T02:25:44Z</time>
      </trkpt>
      <trkpt lat="47.12075" lon="3.94999">
        <ele>530</ele>
        <time>2020-04-21T02:29:41Z</time>
      </trkpt>
      <trkpt lat="47.11988" lon="3.95073">
        <ele>533</ele>
        <time>2020-04-21T02:31:55Z</time>
      </trkpt>
      <trkpt lat="47.12076" lon="3.95085">
        <ele>530</ele>
        <time>2020-04-21T02:33:53Z</time>
      </trkpt>
      <trkpt lat="47.12201" lon="3.95109">
        <ele>512</ele>
        <time>2020-04-21T02:36:41Z</time>
      </trkpt>
      <trkpt lat="47.12138" lon="3.9517">
        <ele>514</ele>
        <time>2020-04-21T02:38:22Z</time>
      </trkpt>
      <trkpt lat="47.12094" lon="3.95257">
        <ele>520</ele>
        <time>2020-04-21T02:40:00Z</time>
      </trkpt>
      <trkpt lat="47.12074" lon="3.95291">
        <ele>522</ele>
        <time>2020-04-21T02:40:41Z</time>
      </trkpt>
      <trkpt lat="47.12036" lon="3.9531">
        <ele>526</ele>
        <time>2020-04-21T02:41:34Z</time>
      </trkpt>
      <trkpt lat="47.12009" lon="3.95318">
        <ele>529</ele>
        <time>2020-04-21T02:42:11Z</time>
      </trkpt>
      <trkpt lat="47.11933" lon="3.95387">
        <ele>529</ele>
        <time>2020-04-21T02:44:10Z</time>
      </trkpt>
      <trkpt lat="47.11873" lon="3.95471">
        <ele>526</ele>
        <time>2020-04-21T02:46:01Z</time>
      </trkpt>
      <trkpt lat="47.11834" lon="3.95561">
        <ele>523</ele>
        <time>2020-04-21T02:47:38Z</time>
      </trkpt>
      <trkpt lat="47.11818" lon="3.95609">
        <ele>523</ele>
        <time>2020-04-21T02:48:26Z</time>
      </trkpt>
      <trkpt lat="47.11802" lon="3.95637">
        <ele>523</ele>
        <time>2020-04-21T02:49:00Z</time>
      </trkpt>
      <trkpt lat="47.11765" lon="3.9584">
        <ele>538</ele>
        <time>2020-04-21T02:52:10Z</time>
      </trkpt>
      <trkpt lat="47.11742" lon="3.95909">
        <ele>545</ele>
        <time>2020-04-21T02:53:20Z</time>
      </trkpt>
      <trkpt lat="47.11608" lon="3.96138">
        <ele>553</ele>
        <time>2020-04-21T02:57:54Z</time>
      </trkpt>
      <trkpt lat="47.11582" lon="3.96196">
        <ele>555</ele>
        <time>2020-04-21T02:58:58Z</time>
      </trkpt>
      <trkpt lat="47.11595" lon="3.96309">
        <ele>552</ele>
        <time>2020-04-21T03:00:42Z</time>
      </trkpt>
      <trkpt lat="47.11616" lon="3.96408">
        <ele>550</ele>
        <time>2020-04-21T03:02:16Z</time>
      </trkpt>
      <trkpt lat="47.11644" lon="3.96493">
        <ele>550</ele>
        <time>2020-04-21T03:03:42Z</time>
      </trkpt>
      <trkpt lat="47.1167" lon="3.96539">
        <ele>553</ele>
        <time>2020-04-21T03:04:36Z</time>
      </trkpt>
      <trkpt lat="47.11729" lon="3.96624">
        <ele>554</ele>
        <time>2020-04-21T03:06:26Z</time>
      </trkpt>
      <trkpt lat="47.11739" lon="3.96657">
        <ele>554</ele>
        <time>2020-04-21T03:06:59Z</time>
      </trkpt>
      <trkpt lat="47.11746" lon="3.96714">
        <ele>554</ele>
        <time>2020-04-21T03:07:52Z</time>
      </trkpt>
      <trkpt lat="47.1175" lon="3.96785">
        <ele>551</ele>
        <time>2020-04-21T03:08:56Z</time>
      </trkpt>
      <trkpt lat="47.11746" lon="3.96893">
        <ele>548</ele>
        <time>2020-04-21T03:10:34Z</time>
      </trkpt>
      <trkpt lat="47.11752" lon="3.96954">
        <ele>547</ele>
        <time>2020-04-21T03:11:30Z</time>
      </trkpt>
      <trkpt lat="47.1178" lon="3.97022">
        <ele>542</ele>
        <time>2020-04-21T03:12:43Z</time>
      </trkpt>
      <trkpt lat="47.11848" lon="3.97088">
        <ele>532</ele>
        <time>2020-04-21T03:14:31Z</time>
      </trkpt>
      <trkpt lat="47.11892" lon="3.97141">
        <ele>531</ele>
        <time>2020-04-21T03:15:47Z</time>
      </trkpt>
      <trkpt lat="47.11978" lon="3.97273">
        <ele>535</ele>
        <time>2020-04-21T03:18:33Z</time>
      </trkpt>
      <trkpt lat="47.12046" lon="3.97355">
        <ele>533</ele>
        <time>2020-04-21T03:20:31Z</time>
      </trkpt>
      <trkpt lat="47.12121" lon="3.9748">
        <ele>522</ele>
        <time>2020-04-21T03:23:02Z</time>
      </trkpt>
      <trkpt lat="47.1216" lon="3.97599">
        <ele>511</ele>
        <time>2020-04-21T03:25:02Z</time>
      </trkpt>
      <trkpt lat="47.12156" lon="3.97626">
        <ele>505</ele>
        <time>2020-04-21T03:25:27Z</time>
      </trkpt>
      <trkpt lat="47.12087" lon="3.9761">
        <ele>507</ele>
        <time>2020-04-21T03:27:00Z</time>
      </trkpt>
      <trkpt lat="47.12022" lon="3.97563">
        <ele>505</ele>
        <time>2020-04-21T03:28:37Z</time>
      </trkpt>
      <trkpt lat="47.11987" lon="3.97545">
        <ele>504</ele>
        <time>2020-04-21T03:29:26Z</time>
      </trkpt>
      <trkpt lat="47.11919" lon="3.97553">
        <ele>496</ele>
        <time>2020-04-21T03:30:57Z</time>
      </trkpt>
      <trkpt lat="47.11898" lon="3.97558">
        <ele>497</ele>
        <time>2020-04-21T03:31:26Z</time>
      </trkpt>
      <trkpt lat="47.11881" lon="3.9757">
        <ele>498</ele>
        <time>2020-04-21T03:31:51Z</time>
      </trkpt>
      <trkpt lat="47.11878" lon="3.97607">
        <ele>498</ele>
        <time>2020-04-21T03:32:25Z</time>
      </trkpt>
      <trkpt lat="47.11889" lon="3.97714">
        <ele>497</ele>
        <time>2020-04-21T03:34:03Z</time>
      </trkpt>
      <trkpt lat="47.11883" lon="3.97729">
        <ele>499</ele>
        <time>2020-04-21T03:34:19Z</time>
      </trkpt>
      <trkpt lat="47.11899" lon="3.97786">
        <ele>492</ele>
        <time>2020-04-21T03:35:15Z</time>
      </trkpt>
      <trkpt lat="47.11903" lon="3.97845">
        <ele>486</ele>
        <time>2020-04-21T03:36:09Z</time>
      </trkpt>
      <trkpt lat="47.11887" lon="3.97899">
        <ele>485</ele>
        <time>2020-04-21T03:37:02Z</time>
      </trkpt>
      <trkpt lat="47.11838" lon="3.98112">
        <ele>467</ele>
        <time>2020-04-21T03:40:26Z</time>
      </trkpt>
      <trkpt lat="47.11833" lon="3.98227">
        <ele>460</ele>
        <time>2020-04-21T03:42:11Z</time>
      </trkpt>
      <trkpt lat="47.11821" lon="3.98283">
        <ele>462</ele>
        <time>2020-04-21T03:43:04Z</time>
      </trkpt>
      <trkpt lat="47.11827" lon="3.98333">
        <ele>466</ele>
        <time>2020-04-21T03:43:50Z</time>
      </trkpt>
      <trkpt lat="47.11822" lon="3.98384">
        <ele>475</ele>
        <time>2020-04-21T03:44:37Z</time>
      </trkpt>
      <trkpt lat="47.11807" lon="3.98423">
        <ele>479</ele>
        <time>2020-04-21T03:45:18Z</time>
      </trkpt>
      <trkpt lat="47.11804" lon="3.98463">
        <ele>481</ele>
        <time>2020-04-21T03:45:54Z</time>
      </trkpt>
      <trkpt lat="47.11817" lon="3.98539">
        <ele>488</ele>
        <time>2020-04-21T03:47:06Z</time>
      </trkpt>
      <trkpt lat="47.11865" lon="3.98761">
        <ele>509</ele>
        <time>2020-04-21T03:50:37Z</time>
      </trkpt>
      <trkpt lat="47.11876" lon="3.98843">
        <ele>518</ele>
        <time>2020-04-21T03:51:53Z</time>
      </trkpt>
      <trkpt lat="47.119" lon="3.98954">
        <ele>531</ele>
        <time>2020-04-21T03:53:39Z</time>
      </trkpt>
      <trkpt lat="47.11915" lon="3.99">
        <ele>533</ele>
        <time>2020-04-21T03:54:25Z</time>
      </trkpt>
      <trkpt lat="47.11926" lon="3.99023">
        <ele>534</ele>
        <time>2020-04-21T03:54:51Z</time>
      </trkpt>
      <trkpt lat="47.11935" lon="3.99027">
        <ele>535</ele>
        <time>2020-04-21T03:55:03Z</time>
      </trkpt>
      <trkpt lat="47.11947" lon="3.99079">
        <ele>533</ele>
        <time>2020-04-21T03:55:53Z</time>
      </trkpt>
      <trkpt lat="47.11948" lon="3.99109">
        <ele>533</ele>
        <time>2020-04-21T03:56:20Z</time>
      </trkpt>
      <trkpt lat="47.11966" lon="3.99175">
        <ele>536</ele>
        <time>2020-04-21T03:57:25Z</time>
      </trkpt>
      <trkpt lat="47.12017" lon="3.99285">
        <ele>546</ele>
        <time>2020-04-21T03:59:26Z</time>
      </trkpt>
      <trkpt lat="47.12014" lon="3.99303">
        <ele>548</ele>
        <time>2020-04-21T03:59:43Z</time>
      </trkpt>
      <trkpt lat="47.12022" lon="3.99321">
        <ele>548</ele>
        <time>2020-04-21T04:00:02Z</time>
      </trkpt>
      <trkpt lat="47.12025" lon="3.99364">
        <ele>548</ele>
        <time>2020-04-21T04:00:41Z</time>
      </trkpt>
      <trkpt lat="47.12022" lon="3.99391">
        <ele>548</ele>
        <time>2020-04-21T04:01:06Z</time>
      </trkpt>
      <trkpt lat="47.11976" lon="3.99459">
        <ele>550</ele>
        <time>2020-04-21T04:02:33Z</time>
      </trkpt>
      <trkpt lat="47.11973" lon="3.99503">
        <ele>551</ele>
        <time>2020-04-21T04:03:13Z</time>
      </trkpt>
      <trkpt lat="47.11977" lon="3.99626">
        <ele>557</ele>
        <time>2020-04-21T04:05:05Z</time>
      </trkpt>
      <trkpt lat="47.11983" lon="3.9965">
        <ele>559</ele>
        <time>2020-04-21T04:05:28Z</time>
      </trkpt>
      <trkpt lat="47.12028" lon="3.99705">
        <ele>563</ele>
        <time>2020-04-21T04:06:46Z</time>
      </trkpt>
      <trkpt lat="47.12033" lon="3.99722">
        <ele>564</ele>
        <time>2020-04-21T04:07:03Z</time>
      </trkpt>
      <trkpt lat="47.12028" lon="3.99741">
        <ele>566</ele>
        <time>2020-04-21T04:07:22Z</time>
      </trkpt>
      <trkpt lat="47.11981" lon="3.99761">
        <ele>571</ele>
        <time>2020-04-21T04:08:27Z</time>
      </trkpt>
      <trkpt lat="47.11981" lon="3.9977">
        <ele>572</ele>
        <time>2020-04-21T04:08:35Z</time>
      </trkpt>
      <trkpt lat="47.12019" lon="3.99785">
        <ele>572</ele>
        <time>2020-04-21T04:09:28Z</time>
      </trkpt>
      <trkpt lat="47.12031" lon="3.99801">
        <ele>572</ele>
        <time>2020-04-21T04:09:49Z</time>
      </trkpt>
      <trkpt lat="47.12033" lon="3.99817">
        <ele>574</ele>
        <time>2020-04-21T04:10:04Z</time>
      </trkpt>
      <trkpt lat="47.12009" lon="3.99813">
        <ele>577</ele>
        <time>2020-04-21T04:10:36Z</time>
      </trkpt>
      <trkpt lat="47.11987" lon="3.99821">
        <ele>578</ele>
        <time>2020-04-21T04:11:07Z</time>
      </trkpt>
      <trkpt lat="47.11979" lon="3.99878">
        <ele>582</ele>
        <time>2020-04-21T04:11:59Z</time>
      </trkpt>
      <trkpt lat="47.11952" lon="3.9994">
        <ele>588</ele>
        <time>2020-04-21T04:13:06Z</time>
      </trkpt>
      <trkpt lat="47.11949" lon="3.99965">
        <ele>590</ele>
        <time>2020-04-21T04:13:29Z</time>
      </trkpt>
      <trkpt lat="47.11962" lon="4.00036">
        <ele>595</ele>
        <time>2020-04-21T04:14:36Z</time>
      </trkpt>
      <trkpt lat="47.11955" lon="4.00053">
        <ele>597</ele>
        <time>2020-04-21T04:14:54Z</time>
      </trkpt>
      <trkpt lat="47.11889" lon="4.00119">
        <ele>605</ele>
        <time>2020-04-21T04:16:41Z</time>
      </trkpt>
      <trkpt lat="47.11743" lon="4.00244">
        <ele>615</ele>
        <time>2020-04-21T04:20:26Z</time>
      </trkpt>
      <trkpt lat="47.11733" lon="4.00255">
        <ele>613</ele>
        <time>2020-04-21T04:20:43Z</time>
      </trkpt>
      <trkpt lat="47.11728" lon="4.00268">
        <ele>612</ele>
        <time>2020-04-21T04:20:56Z</time>
      </trkpt>
      <trkpt lat="47.11721" lon="4.0058">
        <ele>616</ele>
        <time>2020-04-21T04:25:40Z</time>
      </trkpt>
      <trkpt lat="47.11711" lon="4.00601">
        <ele>619</ele>
        <time>2020-04-21T04:26:03Z</time>
      </trkpt>
      <trkpt lat="47.11675" lon="4.00621">
        <ele>624</ele>
        <time>2020-04-21T04:26:55Z</time>
      </trkpt>
      <trkpt lat="47.11653" lon="4.00643">
        <ele>627</ele>
        <time>2020-04-21T04:27:30Z</time>
      </trkpt>
      <trkpt lat="47.11624" lon="4.00686">
        <ele>630</ele>
        <time>2020-04-21T04:28:25Z</time>
      </trkpt>
      <trkpt lat="47.11595" lon="4.00779">
        <ele>639</ele>
        <time>2020-04-21T04:29:58Z</time>
      </trkpt>
      <trkpt lat="47.11569" lon="4.00846">
        <ele>643</ele>
        <time>2020-04-21T04:31:08Z</time>
      </trkpt>
      <trkpt lat="47.11554" lon="4.00895">
        <ele>648</ele>
        <time>2020-04-21T04:31:57Z</time>
      </trkpt>
      <trkpt lat="47.11549" lon="4.00955">
        <ele>653</ele>
        <time>2020-04-21T04:32:52Z</time>
      </trkpt>
      <trkpt lat="47.11551" lon="4.0104">
        <ele>656</ele>
        <time>2020-04-21T04:34:09Z</time>
      </trkpt>
      <trkpt lat="47.11548" lon="4.01078">
        <ele>654</ele>
        <time>2020-04-21T04:34:44Z</time>
      </trkpt>
      <trkpt lat="47.11532" lon="4.01107">
        <ele>651</ele>
        <time>2020-04-21T04:35:18Z</time>
      </trkpt>
      <trkpt lat="47.11525" lon="4.01149">
        <ele>649</ele>
        <time>2020-04-21T04:35:57Z</time>
      </trkpt>
      <trkpt lat="47.11518" lon="4.01174">
        <ele>648</ele>
        <time>2020-04-21T04:36:21Z</time>
      </trkpt>
      <trkpt lat="47.115" lon="4.01197">
        <ele>649</ele>
        <time>2020-04-21T04:36:53Z</time>
      </trkpt>
      <trkpt lat="47.11486" lon="4.0125">
        <ele>647</ele>
        <time>2020-04-21T04:37:45Z</time>
      </trkpt>
      <trkpt lat="47.11458" lon="4.01298">
        <ele>646</ele>
        <time>2020-04-21T04:38:42Z</time>
      </trkpt>
      <trkpt lat="47.11414" lon="4.01342">
        <ele>645</ele>
        <time>2020-04-21T04:39:53Z</time>
      </trkpt>
      <trkpt lat="47.11374" lon="4.01374">
        <ele>641</ele>
        <time>2020-04-21T04:40:54Z</time>
      </trkpt>
      <trkpt lat="47.11354" lon="4.014">
        <ele>640</ele>
        <time>2020-04-21T04:41:30Z</time>
      </trkpt>
      <trkpt lat="47.11367" lon="4.01477">
        <ele>634</ele>
        <time>2020-04-21T04:42:42Z</time>
      </trkpt>
      <trkpt lat="47.11322" lon="4.01557">
        <ele>622</ele>
        <time>2020-04-21T04:44:16Z</time>
      </trkpt>
      <trkpt lat="47.11309" lon="4.0157">
        <ele>620</ele>
        <time>2020-04-21T04:44:37Z</time>
      </trkpt>
      <trkpt lat="47.11268" lon="4.01699">
        <ele>618</ele>
        <time>2020-04-21T04:46:46Z</time>
      </trkpt>
      <trkpt lat="47.11225" lon="4.01772">
        <ele>618</ele>
        <time>2020-04-21T04:48:14Z</time>
      </trkpt>
      <trkpt lat="47.11212" lon="4.01811">
        <ele>615</ele>
        <time>2020-04-21T04:48:53Z</time>
      </trkpt>
      <trkpt lat="47.11201" lon="4.01923">
        <ele>613</ele>
        <time>2020-04-21T04:50:36Z</time>
      </trkpt>
      <trkpt lat="47.11192" lon="4.0199">
        <ele>613</ele>
        <time>2020-04-21T04:51:38Z</time>
      </trkpt>
      <trkpt lat="47.11155" lon="4.01999">
        <ele>612</ele>
        <time>2020-04-21T04:52:28Z</time>
      </trkpt>
      <trkpt lat="47.11221" lon="4.02182">
        <ele>613</ele>
        <time>2020-04-21T04:55:36Z</time>
      </trkpt>
      <trkpt lat="47.11343" lon="4.02388">
        <ele>615</ele>
        <time>2020-04-21T04:59:44Z</time>
      </trkpt>
      <trkpt lat="47.11343" lon="4.02439">
        <ele>615</ele>
        <time>2020-04-21T05:00:31Z</time>
      </trkpt>
      <trkpt lat="47.11278" lon="4.02517">
        <ele>616</ele>
        <time>2020-04-21T05:02:23Z</time>
      </trkpt>
      <trkpt lat="47.11271" lon="4.02627">
        <ele>613</ele>
        <time>2020-04-21T05:04:03Z</time>
      </trkpt>
      <trkpt lat="47.11275" lon="4.02673">
        <ele>612</ele>
        <time>2020-04-21T05:04:45Z</time>
      </trkpt>
      <trkpt lat="47.11294" lon="4.02732">
        <ele>603</ele>
        <time>2020-04-21T05:05:44Z</time>
      </trkpt>
      <trkpt lat="47.11298" lon="4.02767">
        <ele>600</ele>
        <time>2020-04-21T05:06:17Z</time>
      </trkpt>
      <trkpt lat="47.11279" lon="4.02894">
        <ele>602</ele>
        <time>2020-04-21T05:08:15Z</time>
      </trkpt>
      <trkpt lat="47.11265" lon="4.03019">
        <ele>597</ele>
        <time>2020-04-21T05:10:10Z</time>
      </trkpt>
      <trkpt lat="47.11259" lon="4.03202">
        <ele>584</ele>
        <time>2020-04-21T05:12:56Z</time>
      </trkpt>
      <trkpt lat="47.11237" lon="4.03308">
        <ele>579</ele>
        <time>2020-04-21T05:14:37Z</time>
      </trkpt>
      <trkpt lat="47.11267" lon="4.03357">
        <ele>573</ele>
        <time>2020-04-21T05:15:37Z</time>
      </trkpt>
      <trkpt lat="47.11329" lon="4.03531">
        <ele>569</ele>
        <time>2020-04-21T05:18:35Z</time>
      </trkpt>
      <trkpt lat="47.11339" lon="4.03573">
        <ele>574</ele>
        <time>2020-04-21T05:19:15Z</time>
      </trkpt>
      <trkpt lat="47.11314" lon="4.03788">
        <ele>587</ele>
        <time>2020-04-21T05:22:34Z</time>
      </trkpt>
      <trkpt lat="47.11269" lon="4.03919">
        <ele>592</ele>
        <time>2020-04-21T05:24:47Z</time>
      </trkpt>
      <trkpt lat="47.11227" lon="4.04088">
        <ele>608</ele>
        <time>2020-04-21T05:27:30Z</time>
      </trkpt>
      <trkpt lat="47.1119" lon="4.04197">
        <ele>611</ele>
        <time>2020-04-21T05:29:21Z</time>
      </trkpt>
      <trkpt lat="47.11224" lon="4.04207">
        <ele>620</ele>
        <time>2020-04-21T05:30:07Z</time>
      </trkpt>
      <trkpt lat="47.11275" lon="4.04202">
        <ele>631</ele>
        <time>2020-04-21T05:31:15Z</time>
      </trkpt>
      <trkpt lat="47.11336" lon="4.04114">
        <ele>633</ele>
        <time>2020-04-21T05:33:09Z</time>
      </trkpt>
      <trkpt lat="47.11381" lon="4.04067">
        <ele>635</ele>
        <time>2020-04-21T05:34:23Z</time>
      </trkpt>
      <trkpt lat="47.11436" lon="4.04037">
        <ele>642</ele>
        <time>2020-04-21T05:35:41Z</time>
      </trkpt>
      <trkpt lat="47.11524" lon="4.04054">
        <ele>654</ele>
        <time>2020-04-21T05:37:40Z</time>
      </trkpt>
      <trkpt lat="47.1157" lon="4.04084">
        <ele>657</ele>
        <time>2020-04-21T05:38:47Z</time>
      </trkpt>
      <trkpt lat="47.11612" lon="4.04135">
        <ele>653</ele>
        <time>2020-04-21T05:40:00Z</time>
      </trkpt>
      <trkpt lat="47.11627" lon="4.04146">
        <ele>652</ele>
        <time>2020-04-21T05:40:22Z</time>
      </trkpt>
      <trkpt lat="47.1165" lon="4.0415">
        <ele>650</ele>
        <time>2020-04-21T05:40:53Z</time>
      </trkpt>
      <trkpt lat="47.11654" lon="4.04159">
        <ele>649</ele>
        <time>2020-04-21T05:41:03Z</time>
      </trkpt>
      <trkpt lat="47.11638" lon="4.04197">
        <ele>647</ele>
        <time>2020-04-21T05:41:43Z</time>
      </trkpt>
      <trkpt lat="47.11641" lon="4.04216">
        <ele>645</ele>
        <time>2020-04-21T05:42:01Z</time>
      </trkpt>
      <trkpt lat="47.11663" lon="4.0424">
        <ele>640</ele>
        <time>2020-04-21T05:42:38Z</time>
      </trkpt>
      <trkpt lat="47.11704" lon="4.04248">
        <ele>639</ele>
        <time>2020-04-21T05:43:33Z</time>
      </trkpt>
      <trkpt lat="47.11732" lon="4.04265">
        <ele>639</ele>
        <time>2020-04-21T05:44:13Z</time>
      </trkpt>
      <trkpt lat="47.1175" lon="4.04311">
        <ele>643</ele>
        <time>2020-04-21T05:45:01Z</time>
      </trkpt>
      <trkpt lat="47.11766" lon="4.04323">
        <ele>646</ele>
        <time>2020-04-21T05:45:25Z</time>
      </trkpt>
      <trkpt lat="47.1181" lon="4.04333">
        <ele>653</ele>
        <time>2020-04-21T05:46:25Z</time>
      </trkpt>
      <trkpt lat="47.11839" lon="4.04326">
        <ele>655</ele>
        <time>2020-04-21T05:47:04Z</time>
      </trkpt>
      <trkpt lat="47.11932" lon="4.0444">
        <ele>666</ele>
        <time>2020-04-21T05:49:46Z</time>
      </trkpt>
      <trkpt lat="47.11967" lon="4.04505">
        <ele>669</ele>
        <time>2020-04-21T05:51:01Z</time>
      </trkpt>
      <trkpt lat="47.11987" lon="4.04521">
        <ele>669</ele>
        <time>2020-04-21T05:51:31Z</time>
      </trkpt>
      <trkpt lat="47.12015" lon="4.04605">
        <ele>671</ele>
        <time>2020-04-21T05:52:56Z</time>
      </trkpt>
      <trkpt lat="47.12047" lon="4.04652">
        <ele>671</ele>
        <time>2020-04-21T05:53:57Z</time>
      </trkpt>
      <trkpt lat="47.12097" lon="4.047">
        <ele>672</ele>
        <time>2020-04-21T05:55:16Z</time>
      </trkpt>
      <trkpt lat="47.12126" lon="4.04779">
        <ele>675</ele>
        <time>2020-04-21T05:56:38Z</time>
      </trkpt>
      <trkpt lat="47.12149" lon="4.04808">
        <ele>677</ele>
        <time>2020-04-21T05:57:18Z</time>
      </trkpt>
      <trkpt lat="47.12214" lon="4.04852">
        <ele>680</ele>
        <time>2020-04-21T05:58:54Z</time>
      </trkpt>
      <trkpt lat="47.12224" lon="4.04882">
        <ele>682</ele>
        <time>2020-04-21T05:59:24Z</time>
      </trkpt>
      <trkpt lat="47.1228" lon="4.0493">
        <ele>681</ele>
        <time>2020-04-21T06:00:51Z</time>
      </trkpt>
      <trkpt lat="47.12292" lon="4.04955">
        <ele>681</ele>
        <time>2020-04-21T06:01:18Z</time>
      </trkpt>
      <trkpt lat="47.1232" lon="4.04955">
        <ele>677</ele>
        <time>2020-04-21T06:01:56Z</time>
      </trkpt>
      <trkpt lat="47.12354" lon="4.04963">
        <ele>673</ele>
        <time>2020-04-21T06:02:42Z</time>
      </trkpt>
      <trkpt lat="47.1238" lon="4.04986">
        <ele>671</ele>
        <time>2020-04-21T06:03:22Z</time>
      </trkpt>
      <trkpt lat="47.12391" lon="4.05009">
        <ele>669</ele>
        <time>2020-04-21T06:03:48Z</time>
      </trkpt>
      <trkpt lat="47.12407" lon="4.0509">
        <ele>667</ele>
        <time>2020-04-21T06:05:04Z</time>
      </trkpt>
      <trkpt lat="47.12422" lon="4.05222">
        <ele>660</ele>
        <time>2020-04-21T06:07:06Z</time>
      </trkpt>
      <trkpt lat="47.12428" lon="4.05249">
        <ele>660</ele>
        <time>2020-04-21T06:07:32Z</time>
      </trkpt>
      <trkpt lat="47.12428" lon="4.05268">
        <ele>662</ele>
        <time>2020-04-21T06:07:49Z</time>
      </trkpt>
      <trkpt lat="47.12406" lon="4.05319">
        <ele>665</ele>
        <time>2020-04-21T06:08:44Z</time>
      </trkpt>
      <trkpt lat="47.124" lon="4.05387">
        <ele>671</ele>
        <time>2020-04-21T06:09:46Z</time>
      </trkpt>
      <trkpt lat="47.12407" lon="4.05429">
        <ele>676</ele>
        <time>2020-04-21T06:10:25Z</time>
      </trkpt>
      <trkpt lat="47.12425" lon="4.0545">
        <ele>679</ele>
        <time>2020-04-21T06:10:56Z</time>
      </trkpt>
      <trkpt lat="47.12449" lon="4.05454">
        <ele>680</ele>
        <time>2020-04-21T06:11:28Z</time>
      </trkpt>
      <trkpt lat="47.12476" lon="4.05434">
        <ele>680</ele>
        <time>2020-04-21T06:12:08Z</time>
      </trkpt>
      <trkpt lat="47.12497" lon="4.0545">
        <ele>682</ele>
        <time>2020-04-21T06:12:40Z</time>
      </trkpt>
      <trkpt lat="47.12532" lon="4.05494">
        <ele>686</ele>
        <time>2020-04-21T06:13:41Z</time>
      </trkpt>
      <trkpt lat="47.12567" lon="4.05548">
        <ele>691</ele>
        <time>2020-04-21T06:14:49Z</time>
      </trkpt>
      <trkpt lat="47.12582" lon="4.05689">
        <ele>700</ele>
        <time>2020-04-21T06:16:59Z</time>
      </trkpt>
      <trkpt lat="47.12609" lon="4.05754">
        <ele>703</ele>
        <time>2020-04-21T06:18:08Z</time>
      </trkpt>
      <trkpt lat="47.12646" lon="4.05798">
        <ele>704</ele>
        <time>2020-04-21T06:19:11Z</time>
      </trkpt>
      <trkpt lat="47.12691" lon="4.0587">
        <ele>709</ele>
        <time>2020-04-21T06:20:40Z</time>
      </trkpt>
      <trkpt lat="47.1275" lon="4.05932">
        <ele>711</ele>
        <time>2020-04-21T06:22:17Z</time>
      </trkpt>
      <trkpt lat="47.12791" lon="4.05968">
        <ele>711</ele>
        <time>2020-04-21T06:23:21Z</time>
      </trkpt>
      <trkpt lat="47.12813" lon="4.05979">
        <ele>711</ele>
        <time>2020-04-21T06:23:52Z</time>
      </trkpt>
      <trkpt lat="47.12829" lon="4.06005">
        <ele>711</ele>
        <time>2020-04-21T06:24:23Z</time>
      </trkpt>
      <trkpt lat="47.12845" lon="4.06067">
        <ele>714</ele>
        <time>2020-04-21T06:25:24Z</time>
      </trkpt>
      <trkpt lat="47.12798" lon="4.06192">
        <ele>711</ele>
        <time>2020-04-21T06:27:33Z</time>
      </trkpt>
      <trkpt lat="47.12759" lon="4.06283">
        <ele>701</ele>
        <time>2020-04-21T06:29:11Z</time>
      </trkpt>
      <trkpt lat="47.12728" lon="4.06365">
        <ele>691</ele>
        <time>2020-04-21T06:30:36Z</time>
      </trkpt>
      <trkpt lat="47.12702" lon="4.06488">
        <ele>680</ele>
        <time>2020-04-21T06:32:33Z</time>
      </trkpt>
      <trkpt lat="47.12676" lon="4.06579">
        <ele>678</ele>
        <time>2020-04-21T06:34:03Z</time>
      </trkpt>
      <trkpt lat="47.12715" lon="4.06592">
        <ele>675</ele>
        <time>2020-04-21T06:34:56Z</time>
      </trkpt>
      <trkpt lat="47.12791" lon="4.0657">
        <ele>669</ele>
        <time>2020-04-21T06:36:39Z</time>
      </trkpt>
      <trkpt lat="47.12851" lon="4.06565">
        <ele>662</ele>
        <time>2020-04-21T06:38:00Z</time>
      </trkpt>
      <trkpt lat="47.12939" lon="4.06489">
        <ele>660</ele>
        <time>2020-04-21T06:40:16Z</time>
      </trkpt>
      <trkpt lat="47.12961" lon="4.06497">
        <ele>660</ele>
        <time>2020-04-21T06:40:46Z</time>
      </trkpt>
      <trkpt lat="47.13009" lon="4.06534">
        <ele>660</ele>
        <time>2020-04-21T06:41:58Z</time>
      </trkpt>
      <trkpt lat="47.13065" lon="4.06611">
        <ele>657</ele>
        <time>2020-04-21T06:43:41Z</time>
      </trkpt>
      <trkpt lat="47.13099" lon="4.06649">
        <ele>656</ele>
        <time>2020-04-21T06:44:38Z</time>
      </trkpt>
      <trkpt lat="47.1313" lon="4.06661">
        <ele>655</ele>
        <time>2020-04-21T06:45:21Z</time>
      </trkpt>
      <trkpt lat="47.13182" lon="4.06662">
        <ele>653</ele>
        <time>2020-04-21T06:46:30Z</time>
      </trkpt>
      <trkpt lat="47.13238" lon="4.06659">
        <ele>648</ele>
        <time>2020-04-21T06:47:45Z</time>
      </trkpt>
      <trkpt lat="47.13295" lon="4.06663">
        <ele>645</ele>
        <time>2020-04-21T06:49:01Z</time>
      </trkpt>
      <trkpt lat="47.13338" lon="4.06637">
        <ele>644</ele>
        <time>2020-04-21T06:50:03Z</time>
      </trkpt>
      <trkpt lat="47.13383" lon="4.0668">
        <ele>638</ele>
        <time>2020-04-21T06:51:15Z</time>
      </trkpt>
      <trkpt lat="47.13432" lon="4.06736">
        <ele>632</ele>
        <time>2020-04-21T06:52:37Z</time>
      </trkpt>
      <trkpt lat="47.13464" lon="4.06825">
        <ele>626</ele>
        <time>2020-04-21T06:54:09Z</time>
      </trkpt>
      <trkpt lat="47.13467" lon="4.06873">
        <ele>625</ele>
        <time>2020-04-21T06:54:53Z</time>
      </trkpt>
      <trkpt lat="47.13475" lon="4.06898">
        <ele>624</ele>
        <time>2020-04-21T06:55:18Z</time>
      </trkpt>
      <trkpt lat="47.13483" lon="4.06918">
        <ele>624</ele>
        <time>2020-04-21T06:55:39Z</time>
      </trkpt>
      <trkpt lat="47.13501" lon="4.06944">
        <ele>625</ele>
        <time>2020-04-21T06:56:12Z</time>
      </trkpt>
      <trkpt lat="47.13549" lon="4.06971">
        <ele>628</ele>
        <time>2020-04-21T06:57:21Z</time>
      </trkpt>
      <trkpt lat="47.13577" lon="4.06977">
        <ele>629</ele>
        <time>2020-04-21T06:57:59Z</time>
      </trkpt>
      <trkpt lat="47.13611" lon="4.06977">
        <ele>630</ele>
        <time>2020-04-21T06:58:44Z</time>
      </trkpt>
      <trkpt lat="47.13684" lon="4.06954">
        <ele>630</ele>
        <time>2020-04-21T07:00:24Z</time>
      </trkpt>
      <trkpt lat="47.13706" lon="4.06953">
        <ele>630</ele>
        <time>2020-04-21T07:00:53Z</time>
      </trkpt>
      <trkpt lat="47.13764" lon="4.06982">
        <ele>633</ele>
        <time>2020-04-21T07:02:15Z</time>
      </trkpt>
      <trkpt lat="47.13785" lon="4.06964">
        <ele>629</ele>
        <time>2020-04-21T07:02:47Z</time>
      </trkpt>
      <trkpt lat="47.1381" lon="4.06957">
        <ele>627</ele>
        <time>2020-04-21T07:03:21Z</time>
      </trkpt>
      <trkpt lat="47.13881" lon="4.06964">
        <ele>626</ele>
        <time>2020-04-21T07:04:56Z</time>
      </trkpt>
      <trkpt lat="47.139" lon="4.06899">
        <ele>622</ele>
        <time>2020-04-21T07:06:00Z</time>
      </trkpt>
      <trkpt lat="47.13906" lon="4.06827">
        <ele>627</ele>
        <time>2020-04-21T07:07:06Z</time>
      </trkpt>
      <trkpt lat="47.13913" lon="4.06807">
        <ele>629</ele>
        <time>2020-04-21T07:07:27Z</time>
      </trkpt>
      <trkpt lat="47.13935" lon="4.06787">
        <ele>632</ele>
        <time>2020-04-21T07:08:01Z</time>
      </trkpt>
      <trkpt lat="47.13976" lon="4.06766">
        <ele>638</ele>
        <time>2020-04-21T07:08:59Z</time>
      </trkpt>
      <trkpt lat="47.14009" lon="4.06716">
        <ele>647</ele>
        <time>2020-04-21T07:10:02Z</time>
      </trkpt>
      <trkpt lat="47.14015" lon="4.06702">
        <ele>649</ele>
        <time>2020-04-21T07:10:17Z</time>
      </trkpt>
      <trkpt lat="47.14035" lon="4.06696">
        <ele>651</ele>
        <time>2020-04-21T07:10:45Z</time>
      </trkpt>
      <trkpt lat="47.14145" lon="4.06687">
        <ele>654</ele>
        <time>2020-04-21T07:13:12Z</time>
      </trkpt>
      <trkpt lat="47.14166" lon="4.06676">
        <ele>653</ele>
        <time>2020-04-21T07:13:41Z</time>
      </trkpt>
      <trkpt lat="47.14245" lon="4.06687">
        <ele>650</ele>
        <time>2020-04-21T07:15:27Z</time>
      </trkpt>
      <trkpt lat="47.14282" lon="4.06705">
        <ele>648</ele>
        <time>2020-04-21T07:16:19Z</time>
      </trkpt>
      <trkpt lat="47.14372" lon="4.06723">
        <ele>642</ele>
        <time>2020-04-21T07:18:20Z</time>
      </trkpt>
      <trkpt lat="47.14397" lon="4.06726">
        <ele>640</ele>
        <time>2020-04-21T07:18:54Z</time>
      </trkpt>
      <trkpt lat="47.14412" lon="4.06719">
        <ele>639</ele>
        <time>2020-04-21T07:19:15Z</time>
      </trkpt>
      <trkpt lat="47.14447" lon="4.06689">
        <ele>635</ele>
        <time>2020-04-21T07:20:09Z</time>
      </trkpt>
      <trkpt lat="47.14485" lon="4.06703">
        <ele>633</ele>
        <time>2020-04-21T07:21:01Z</time>
      </trkpt>
      <trkpt lat="47.14508" lon="4.06745">
        <ele>632</ele>
        <time>2020-04-21T07:21:50Z</time>
      </trkpt>
      <trkpt lat="47.14535" lon="4.06775">
        <ele>627</ele>
        <time>2020-04-21T07:22:35Z</time>
      </trkpt>
      <trkpt lat="47.14554" lon="4.06825">
        <ele>624</ele>
        <time>2020-04-21T07:23:27Z</time>
      </trkpt>
      <trkpt lat="47.14562" lon="4.06893">
        <ele>618</ele>
        <time>2020-04-21T07:24:30Z</time>
      </trkpt>
      <trkpt lat="47.14542" lon="4.07045">
        <ele>604</ele>
        <time>2020-04-21T07:26:51Z</time>
      </trkpt>
      <trkpt lat="47.14573" lon="4.07016">
        <ele>603</ele>
        <time>2020-04-21T07:27:40Z</time>
      </trkpt>
      <trkpt lat="47.14635" lon="4.06892">
        <ele>605</ele>
        <time>2020-04-21T07:29:59Z</time>
      </trkpt>
      <trkpt lat="47.14695" lon="4.068">
        <ele>601</ele>
        <time>2020-04-21T07:31:55Z</time>
      </trkpt>
      <trkpt lat="47.14704" lon="4.06781">
        <ele>601</ele>
        <time>2020-04-21T07:32:16Z</time>
      </trkpt>
      <trkpt lat="47.14733" lon="4.06763">
        <ele>600</ele>
        <time>2020-04-21T07:32:58Z</time>
      </trkpt>
      <trkpt lat="47.14765" lon="4.06719">
        <ele>602</ele>
        <time>2020-04-21T07:33:56Z</time>
      </trkpt>
      <trkpt lat="47.14801" lon="4.06648">
        <ele>608</ele>
        <time>2020-04-21T07:35:17Z</time>
      </trkpt>
      <trkpt lat="47.14818" lon="4.06622">
        <ele>611</ele>
        <time>2020-04-21T07:35:50Z</time>
      </trkpt>
      <trkpt lat="47.14839" lon="4.06624">
        <ele>611</ele>
        <time>2020-04-21T07:36:18Z</time>
      </trkpt>
      <trkpt lat="47.14882" lon="4.06611">
        <ele>612</ele>
        <time>2020-04-21T07:37:16Z</time>
      </trkpt>
      <trkpt lat="47.14992" lon="4.06535">
        <ele>624</ele>
        <time>2020-04-21T07:39:58Z</time>
      </trkpt>
      <trkpt lat="47.15083" lon="4.06522">
        <ele>619</ele>
        <time>2020-04-21T07:42:00Z</time>
      </trkpt>
      <trkpt lat="47.15113" lon="4.06498">
        <ele>621</ele>
        <time>2020-04-21T07:42:46Z</time>
      </trkpt>
      <trkpt lat="47.15154" lon="4.06445">
        <ele>622</ele>
        <time>2020-04-21T07:43:59Z</time>
      </trkpt>
      <trkpt lat="47.15194" lon="4.06319">
        <ele>627</ele>
        <time>2020-04-21T07:46:05Z</time>
      </trkpt>
      <trkpt lat="47.15208" lon="4.06206">
        <ele>625</ele>
        <time>2020-04-21T07:47:49Z</time>
      </trkpt>
      <trkpt lat="47.15218" lon="4.06019">
        <ele>624</ele>
        <time>2020-04-21T07:50:39Z</time>
      </trkpt>
      <trkpt lat="47.15198" lon="4.05795">
        <ele>619</ele>
        <time>2020-04-21T07:54:04Z</time>
      </trkpt>
      <trkpt lat="47.15201" lon="4.05702">
        <ele>619</ele>
        <time>2020-04-21T07:55:29Z</time>
      </trkpt>
      <trkpt lat="47.15212" lon="4.05676">
        <ele>619</ele>
        <time>2020-04-21T07:55:57Z</time>
      </trkpt>
      <trkpt lat="47.15311" lon="4.05566">
        <ele>621</ele>
        <time>2020-04-21T07:58:42Z</time>
      </trkpt>
      <trkpt lat="47.15373" lon="4.0548">
        <ele>627</ele>
        <time>2020-04-21T08:00:36Z</time>
      </trkpt>
      <trkpt lat="47.15495" lon="4.05462">
        <ele>625</ele>
        <time>2020-04-21T08:03:20Z</time>
      </trkpt>
      <trkpt lat="47.15548" lon="4.05441">
        <ele>623</ele>
        <time>2020-04-21T08:04:33Z</time>
      </trkpt>
      <trkpt lat="47.15569" lon="4.05421">
        <ele>622</ele>
        <time>2020-04-21T08:05:06Z</time>
      </trkpt>
      <trkpt lat="47.15583" lon="4.054">
        <ele>622</ele>
        <time>2020-04-21T08:05:33Z</time>
      </trkpt>
      <trkpt lat="47.15614" lon="4.05342">
        <ele>619</ele>
        <time>2020-04-21T08:06:40Z</time>
      </trkpt>
      <trkpt lat="47.15644" lon="4.05317">
        <ele>617</ele>
        <time>2020-04-21T08:07:26Z</time>
      </trkpt>
      <trkpt lat="47.15729" lon="4.05271">
        <ele>612</ele>
        <time>2020-04-21T08:09:27Z</time>
      </trkpt>
      <trkpt lat="47.15779" lon="4.05264">
        <ele>610</ele>
        <time>2020-04-21T08:10:34Z</time>
      </trkpt>
      <trkpt lat="47.158" lon="4.05235">
        <ele>610</ele>
        <time>2020-04-21T08:11:12Z</time>
      </trkpt>
      <trkpt lat="47.15811" lon="4.05114">
        <ele>612</ele>
        <time>2020-04-21T08:13:03Z</time>
      </trkpt>
      <trkpt lat="47.15828" lon="4.05073">
        <ele>612</ele>
        <time>2020-04-21T08:13:47Z</time>
      </trkpt>
      <trkpt lat="47.15882" lon="4.05045">
        <ele>614</ele>
        <time>2020-04-21T08:15:03Z</time>
      </trkpt>
      <trkpt lat="47.15919" lon="4.05057">
        <ele>612</ele>
        <time>2020-04-21T08:15:54Z</time>
      </trkpt>
      <trkpt lat="47.15953" lon="4.05106">
        <ele>610</ele>
        <time>2020-04-21T08:16:57Z</time>
      </trkpt>
      <trkpt lat="47.16012" lon="4.05206">
        <ele>606</ele>
        <time>2020-04-21T08:18:57Z</time>
      </trkpt>
      <trkpt lat="47.16076" lon="4.05226">
        <ele>605</ele>
        <time>2020-04-21T08:20:25Z</time>
      </trkpt>
      <trkpt lat="47.16151" lon="4.05238">
        <ele>602</ele>
        <time>2020-04-21T08:22:05Z</time>
      </trkpt>
      <trkpt lat="47.1621" lon="4.05268">
        <ele>601</ele>
        <time>2020-04-21T08:23:29Z</time>
      </trkpt>
      <trkpt lat="47.16514" lon="4.05671">
        <ele>587</ele>
        <time>2020-04-21T08:32:35Z</time>
      </trkpt>
      <trkpt lat="47.16515" lon="4.05702">
        <ele>588</ele>
        <time>2020-04-21T08:33:03Z</time>
      </trkpt>
      <trkpt lat="47.165" lon="4.0576">
        <ele>587</ele>
        <time>2020-04-21T08:33:59Z</time>
      </trkpt>
      <trkpt lat="47.16465" lon="4.05867">
        <ele>587</ele>
        <time>2020-04-21T08:35:47Z</time>
      </trkpt>
      <trkpt lat="47.16543" lon="4.05844">
        <ele>590</ele>
        <time>2020-04-21T08:37:33Z</time>
      </trkpt>
      <trkpt lat="47.16605" lon="4.05854">
        <ele>594</ele>
        <time>2020-04-21T08:38:56Z</time>
      </trkpt>
      <trkpt lat="47.16682" lon="4.05883">
        <ele>594</ele>
        <time>2020-04-21T08:40:42Z</time>
      </trkpt>
      <trkpt lat="47.16719" lon="4.05885">
        <ele>593</ele>
        <time>2020-04-21T08:41:32Z</time>
      </trkpt>
      <trkpt lat="47.1674" lon="4.05865">
        <ele>596</ele>
        <time>2020-04-21T08:42:05Z</time>
      </trkpt>
      <trkpt lat="47.16779" lon="4.05863">
        <ele>595</ele>
        <time>2020-04-21T08:42:57Z</time>
      </trkpt>
      <trkpt lat="47.16798" lon="4.05868">
        <ele>595</ele>
        <time>2020-04-21T08:43:23Z</time>
      </trkpt>
      <trkpt lat="47.16825" lon="4.05913">
        <ele>593</ele>
        <time>2020-04-21T08:44:17Z</time>
      </trkpt>
      <trkpt lat="47.16827" lon="4.05942">
        <ele>592</ele>
        <time>2020-04-21T08:44:44Z</time>
      </trkpt>
      <trkpt lat="47.16846" lon="4.05945">
        <ele>592</ele>
        <time>2020-04-21T08:45:09Z</time>
      </trkpt>
      <trkpt lat="47.16869" lon="4.05975">
        <ele>591</ele>
        <time>2020-04-21T08:45:50Z</time>
      </trkpt>
      <trkpt lat="47.16879" lon="4.05993">
        <ele>590</ele>
        <time>2020-04-21T08:46:12Z</time>
      </trkpt>
      <trkpt lat="47.16928" lon="4.05985">
        <ele>589</ele>
        <time>2020-04-21T08:47:17Z</time>
      </trkpt>
      <trkpt lat="47.16968" lon="4.05954">
        <ele>589</ele>
        <time>2020-04-21T08:48:18Z</time>
      </trkpt>
      <trkpt lat="47.16991" lon="4.05949">
        <ele>588</ele>
        <time>2020-04-21T08:48:49Z</time>
      </trkpt>
      <trkpt lat="47.17006" lon="4.05956">
        <ele>588</ele>
        <time>2020-04-21T08:49:10Z</time>
      </trkpt>
      <trkpt lat="47.17028" lon="4.05972">
        <ele>589</ele>
        <time>2020-04-21T08:49:42Z</time>
      </trkpt>
      <trkpt lat="47.17032" lon="4.05986">
        <ele>589</ele>
        <time>2020-04-21T08:49:56Z</time>
      </trkpt>
      <trkpt lat="47.17043" lon="4.061">
        <ele>589</ele>
        <time>2020-04-21T08:51:41Z</time>
      </trkpt>
      <trkpt lat="47.17061" lon="4.06148">
        <ele>589</ele>
        <time>2020-04-21T08:52:30Z</time>
      </trkpt>
      <trkpt lat="47.17088" lon="4.06193">
        <ele>589</ele>
        <time>2020-04-21T08:53:25Z</time>
      </trkpt>
      <trkpt lat="47.17135" lon="4.06199">
        <ele>589</ele>
        <time>2020-04-21T08:54:28Z</time>
      </trkpt>
      <trkpt lat="47.17164" lon="4.06196">
        <ele>590</ele>
        <time>2020-04-21T08:55:07Z</time>
      </trkpt>
      <trkpt lat="47.17214" lon="4.0615">
        <ele>589</ele>
        <time>2020-04-21T08:56:25Z</time>
      </trkpt>
      <trkpt lat="47.17254" lon="4.06097">
        <ele>589</ele>
        <time>2020-04-21T08:57:37Z</time>
      </trkpt>
      <trkpt lat="47.17288" lon="4.06022">
        <ele>588</ele>
        <time>2020-04-21T08:58:59Z</time>
      </trkpt>
      <trkpt lat="47.1728" lon="4.05979">
        <ele>588</ele>
        <time>2020-04-21T08:59:39Z</time>
      </trkpt>
      <trkpt lat="47.1724" lon="4.05915">
        <ele>590</ele>
        <time>2020-04-21T09:00:58Z</time>
      </trkpt>
      <trkpt lat="47.17191" lon="4.05853">
        <ele>589</ele>
        <time>2020-04-21T09:02:24Z</time>
      </trkpt>
      <trkpt lat="47.17151" lon="4.05836">
        <ele>588</ele>
        <time>2020-04-21T09:03:20Z</time>
      </trkpt>
      <trkpt lat="47.17118" lon="4.05839">
        <ele>588</ele>
        <time>2020-04-21T09:04:04Z</time>
      </trkpt>
      <trkpt lat="47.171" lon="4.05803">
        <ele>588</ele>
        <time>2020-04-21T09:04:45Z</time>
      </trkpt>
      <trkpt lat="47.17102" lon="4.05759">
        <ele>588</ele>
        <time>2020-04-21T09:05:25Z</time>
      </trkpt>
      <trkpt lat="47.17124" lon="4.05728">
        <ele>588</ele>
        <time>2020-04-21T09:06:05Z</time>
      </trkpt>
      <trkpt lat="47.17176" lon="4.05727">
        <ele>588</ele>
        <time>2020-04-21T09:07:15Z</time>
      </trkpt>
      <trkpt lat="47.17191" lon="4.05724">
        <ele>587</ele>
        <time>2020-04-21T09:07:35Z</time>
      </trkpt>
      <trkpt lat="47.17199" lon="4.05711">
        <ele>586</ele>
        <time>2020-04-21T09:07:51Z</time>
      </trkpt>
      <trkpt lat="47.172" lon="4.05689">
        <ele>586</ele>
        <time>2020-04-21T09:08:11Z</time>
      </trkpt>
      <trkpt lat="47.17212" lon="4.05678">
        <ele>585</ele>
        <time>2020-04-21T09:08:30Z</time>
      </trkpt>
      <trkpt lat="47.17219" lon="4.05664">
        <ele>585</ele>
        <time>2020-04-21T09:08:45Z</time>
      </trkpt>
      <trkpt lat="47.17217" lon="4.05627">
        <ele>587</ele>
        <time>2020-04-21T09:09:19Z</time>
      </trkpt>
      <trkpt lat="47.17208" lon="4.05599">
        <ele>589</ele>
        <time>2020-04-21T09:09:47Z</time>
      </trkpt>
      <trkpt lat="47.17225" lon="4.05575">
        <ele>590</ele>
        <time>2020-04-21T09:10:19Z</time>
      </trkpt>
      <trkpt lat="47.17284" lon="4.05533">
        <ele>591</ele>
        <time>2020-04-21T09:11:46Z</time>
      </trkpt>
      <trkpt lat="47.17343" lon="4.0554">
        <ele>590</ele>
        <time>2020-04-21T09:13:05Z</time>
      </trkpt>
      <trkpt lat="47.17384" lon="4.05532">
        <ele>590</ele>
        <time>2020-04-21T09:14:00Z</time>
      </trkpt>
      <trkpt lat="47.17402" lon="4.05542">
        <ele>590</ele>
        <time>2020-04-21T09:14:26Z</time>
      </trkpt>
      <trkpt lat="47.17421" lon="4.05575">
        <ele>592</ele>
        <time>2020-04-21T09:15:05Z</time>
      </trkpt>
      <trkpt lat="47.17448" lon="4.05605">
        <ele>590</ele>
        <time>2020-04-21T09:15:50Z</time>
      </trkpt>
      <trkpt lat="47.17487" lon="4.05627">
        <ele>587</ele>
        <time>2020-04-21T09:16:46Z</time>
      </trkpt>
      <trkpt lat="47.17523" lon="4.05635">
        <ele>586</ele>
        <time>2020-04-21T09:17:35Z</time>
      </trkpt>
      <trkpt lat="47.17546" lon="4.05635">
        <ele>586</ele>
        <time>2020-04-21T09:18:05Z</time>
      </trkpt>
      <trkpt lat="47.17575" lon="4.05608">
        <ele>589</ele>
        <time>2020-04-21T09:18:51Z</time>
      </trkpt>
      <trkpt lat="47.17617" lon="4.05547">
        <ele>594</ele>
        <time>2020-04-21T09:20:10Z</time>
      </trkpt>
      <trkpt lat="47.17632" lon="4.0552">
        <ele>596</ele>
        <time>2020-04-21T09:20:42Z</time>
      </trkpt>
      <trkpt lat="47.17684" lon="4.0546">
        <ele>597</ele>
        <time>2020-04-21T09:22:10Z</time>
      </trkpt>
      <trkpt lat="47.17714" lon="4.05462">
        <ele>595</ele>
        <time>2020-04-21T09:22:50Z</time>
      </trkpt>
      <trkpt lat="47.1777" lon="4.0551">
        <ele>590</ele>
        <time>2020-04-21T09:24:16Z</time>
      </trkpt>
      <trkpt lat="47.17786" lon="4.05519">
        <ele>589</ele>
        <time>2020-04-21T09:24:39Z</time>
      </trkpt>
      <trkpt lat="47.17804" lon="4.05519">
        <ele>590</ele>
        <time>2020-04-21T09:25:03Z</time>
      </trkpt>
      <trkpt lat="47.17832" lon="4.05527">
        <ele>590</ele>
        <time>2020-04-21T09:25:41Z</time>
      </trkpt>
      <trkpt lat="47.17849" lon="4.05551">
        <ele>590</ele>
        <time>2020-04-21T09:26:13Z</time>
      </trkpt>
      <trkpt lat="47.17888" lon="4.05581">
        <ele>589</ele>
        <time>2020-04-21T09:27:11Z</time>
      </trkpt>
      <trkpt lat="47.17952" lon="4.05581">
        <ele>592</ele>
        <time>2020-04-21T09:28:37Z</time>
      </trkpt>
      <trkpt lat="47.18001" lon="4.05563">
        <ele>594</ele>
        <time>2020-04-21T09:29:44Z</time>
      </trkpt>
      <trkpt lat="47.18052" lon="4.05512">
        <ele>592</ele>
        <time>2020-04-21T09:31:07Z</time>
      </trkpt>
      <trkpt lat="47.1807" lon="4.05502">
        <ele>592</ele>
        <time>2020-04-21T09:31:32Z</time>
      </trkpt>
      <trkpt lat="47.18091" lon="4.05522">
        <ele>592</ele>
        <time>2020-04-21T09:32:06Z</time>
      </trkpt>
      <trkpt lat="47.18105" lon="4.05633">
        <ele>590</ele>
        <time>2020-04-21T09:33:48Z</time>
      </trkpt>
      <trkpt lat="47.18123" lon="4.05659">
        <ele>589</ele>
        <time>2020-04-21T09:34:22Z</time>
      </trkpt>
      <trkpt lat="47.1815" lon="4.05654">
        <ele>590</ele>
        <time>2020-04-21T09:34:58Z</time>
      </trkpt>
      <trkpt lat="47.18182" lon="4.05661">
        <ele>590</ele>
        <time>2020-04-21T09:35:41Z</time>
      </trkpt>
      <trkpt lat="47.18281" lon="4.05637">
        <ele>590</ele>
        <time>2020-04-21T09:37:55Z</time>
      </trkpt>
      <trkpt lat="47.18301" lon="4.05624">
        <ele>591</ele>
        <time>2020-04-21T09:38:24Z</time>
      </trkpt>
      <trkpt lat="47.18343" lon="4.0557">
        <ele>593</ele>
        <time>2020-04-21T09:39:39Z</time>
      </trkpt>
      <trkpt lat="47.18405" lon="4.0543">
        <ele>593</ele>
        <time>2020-04-21T09:42:10Z</time>
      </trkpt>
      <trkpt lat="47.18421" lon="4.05424">
        <ele>591</ele>
        <time>2020-04-21T09:42:32Z</time>
      </trkpt>
      <trkpt lat="47.18433" lon="4.05423">
        <ele>591</ele>
        <time>2020-04-21T09:42:48Z</time>
      </trkpt>
      <trkpt lat="47.18455" lon="4.05437">
        <ele>591</ele>
        <time>2020-04-21T09:43:20Z</time>
      </trkpt>
      <trkpt lat="47.18489" lon="4.05444">
        <ele>591</ele>
        <time>2020-04-21T09:44:06Z</time>
      </trkpt>
      <trkpt lat="47.18525" lon="4.05448">
        <ele>593</ele>
        <time>2020-04-21T09:44:54Z</time>
      </trkpt>
      <trkpt lat="47.18548" lon="4.05472">
        <ele>595</ele>
        <time>2020-04-21T09:45:32Z</time>
      </trkpt>
      <trkpt lat="47.18557" lon="4.05529">
        <ele>594</ele>
        <time>2020-04-21T09:46:25Z</time>
      </trkpt>
      <trkpt lat="47.18577" lon="4.05549">
        <ele>594</ele>
        <time>2020-04-21T09:46:57Z</time>
      </trkpt>
      <trkpt lat="47.18607" lon="4.05554">
        <ele>594</ele>
        <time>2020-04-21T09:47:38Z</time>
      </trkpt>
      <trkpt lat="47.18719" lon="4.05547">
        <ele>596</ele>
        <time>2020-04-21T09:50:07Z</time>
      </trkpt>
      <trkpt lat="47.18765" lon="4.05572">
        <ele>594</ele>
        <time>2020-04-21T09:51:13Z</time>
      </trkpt>
      <trkpt lat="47.18842" lon="4.05652">
        <ele>589</ele>
        <time>2020-04-21T09:53:18Z</time>
      </trkpt>
      <trkpt lat="47.18884" lon="4.05712">
        <ele>589</ele>
        <time>2020-04-21T09:54:36Z</time>
      </trkpt>
      <trkpt lat="47.18883" lon="4.05743">
        <ele>589</ele>
        <time>2020-04-21T09:55:05Z</time>
      </trkpt>
      <trkpt lat="47.18872" lon="4.05798">
        <ele>589</ele>
        <time>2020-04-21T09:55:57Z</time>
      </trkpt>
      <trkpt lat="47.18866" lon="4.05852">
        <ele>588</ele>
        <time>2020-04-21T09:56:46Z</time>
      </trkpt>
      <trkpt lat="47.18867" lon="4.05886">
        <ele>588</ele>
        <time>2020-04-21T09:57:17Z</time>
      </trkpt>
      <trkpt lat="47.18883" lon="4.05924">
        <ele>590</ele>
        <time>2020-04-21T09:57:58Z</time>
      </trkpt>
      <trkpt lat="47.18892" lon="4.0598">
        <ele>590</ele>
        <time>2020-04-21T09:58:50Z</time>
      </trkpt>
      <trkpt lat="47.18895" lon="4.06057">
        <ele>588</ele>
        <time>2020-04-21T10:00:00Z</time>
      </trkpt>
      <trkpt lat="47.18908" lon="4.06121">
        <ele>588</ele>
        <time>2020-04-21T10:01:00Z</time>
      </trkpt>
      <trkpt lat="47.18928" lon="4.06178">
        <ele>589</ele>
        <time>2020-04-21T10:01:59Z</time>
      </trkpt>
      <trkpt lat="47.18947" lon="4.06209">
        <ele>590</ele>
        <time>2020-04-21T10:02:36Z</time>
      </trkpt>
      <trkpt lat="47.18962" lon="4.06228">
        <ele>591</ele>
        <time>2020-04-21T10:03:03Z</time>
      </trkpt>
      <trkpt lat="47.19016" lon="4.06247">
        <ele>592</ele>
        <time>2020-04-21T10:04:17Z</time>
      </trkpt>
      <trkpt lat="47.19057" lon="4.06281">
        <ele>588</ele>
        <time>2020-04-21T10:05:20Z</time>
      </trkpt>
      <trkpt lat="47.1909" lon="4.06262">
        <ele>590</ele>
        <time>2020-04-21T10:06:07Z</time>
      </trkpt>
      <trkpt lat="47.19144" lon="4.06201">
        <ele>592</ele>
        <time>2020-04-21T10:07:38Z</time>
      </trkpt>
      <trkpt lat="47.19193" lon="4.06156">
        <ele>591</ele>
        <time>2020-04-21T10:08:55Z</time>
      </trkpt>
      <trkpt lat="47.19228" lon="4.06131">
        <ele>591</ele>
        <time>2020-04-21T10:09:47Z</time>
      </trkpt>
      <trkpt lat="47.19403" lon="4.06018">
        <ele>592</ele>
        <time>2020-04-21T10:14:02Z</time>
      </trkpt>
      <trkpt lat="47.19421" lon="4.06016">
        <ele>590</ele>
        <time>2020-04-21T10:14:26Z</time>
      </trkpt>
      <trkpt lat="47.19434" lon="4.06002">
        <ele>590</ele>
        <time>2020-04-21T10:14:47Z</time>
      </trkpt>
      <trkpt lat="47.19439" lon="4.05978">
        <ele>592</ele>
        <time>2020-04-21T10:15:10Z</time>
      </trkpt>
      <trkpt lat="47.1944" lon="4.05951">
        <ele>595</ele>
        <time>2020-04-21T10:15:35Z</time>
      </trkpt>
      <trkpt lat="47.19506" lon="4.05763">
        <ele>591</ele>
        <time>2020-04-21T10:18:47Z</time>
      </trkpt>
      <trkpt lat="47.1953" lon="4.05724">
        <ele>590</ele>
        <time>2020-04-21T10:19:34Z</time>
      </trkpt>
      <trkpt lat="47.19538" lon="4.05667">
        <ele>591</ele>
        <time>2020-04-21T10:20:27Z</time>
      </trkpt>
      <trkpt lat="47.19772" lon="4.05725">
        <ele>594</ele>
        <time>2020-04-21T10:25:44Z</time>
      </trkpt>
      <trkpt lat="47.19772" lon="4.05786">
        <ele>597</ele>
        <time>2020-04-21T10:26:39Z</time>
      </trkpt>
      <trkpt lat="47.19765" lon="4.05847">
        <ele>598</ele>
        <time>2020-04-21T10:27:35Z</time>
      </trkpt>
    </trkseg>
  </trk>
</gpx>